Wetterdaten: Freitag, 07.07.2017
Datum Zeit Temp. Aussen Temp. o. S. +5cm Feuchte Auss BlattFeu 1 Luftdruck Regen Sonnenschein Regendauer Solar Windben Empfang
07.07.2017 00:00 21,1 C 20,6 C 19,4 C 89 % 0 lf 1015,3 hPa 0,0 l/m 0 min 0 min 0 W/m 16,7 km/h (3 Bft) 97,87 %
07.07.2017 00:02 21,1 C 20,6 C 19,4 C 89 % 0 lf 1015,5 hPa 0,0 l/m 0 min 0 min 0 W/m 23,0 km/h (4 Bft) 97,62 %
07.07.2017 00:04 21,1 C 20,6 C 19,4 C 89 % 0 lf 1015,9 hPa 0,0 l/m 0 min 0 min 0 W/m 23,0 km/h (4 Bft) 97,87 %
07.07.2017 00:06 21,1 C 20,6 C 19,4 C 89 % 0 lf 1016,0 hPa 0,0 l/m 0 min 0 min 0 W/m 25,1 km/h (4 Bft) 100,00 %
07.07.2017 00:10 21,0 C 20,6 C 19,4 C 89 % 0 lf 1015,8 hPa 0,0 l/m 0 min 0 min 0 W/m 33,5 km/h (5 Bft) 98,95 %
07.07.2017 00:12 21,0 C 20,6 C 19,4 C 89 % 0 lf 1015,6 hPa 0,0 l/m 0 min 0 min 0 W/m 27,2 km/h (4 Bft) 97,87 %
07.07.2017 00:14 21,0 C 20,6 C 19,4 C 89 % 0 lf 1015,5 hPa 0,0 l/m 0 min 0 min 0 W/m 37,7 km/h (5 Bft) 100,00 %
07.07.2017 00:16 20,9 C 20,6 C 19,4 C 89 % 0 lf 1015,3 hPa 0,0 l/m 0 min 2 min 0 W/m 29,3 km/h (5 Bft) 100,00 %
07.07.2017 00:18 20,8 C 20,6 C 19,4 C 89 % 0 lf 1015,1 hPa 0,0 l/m 0 min 2 min 0 W/m 31,4 km/h (5 Bft) 97,87 %
07.07.2017 00:20 20,8 C 20,0 C 19,4 C 89 % 0 lf 1014,9 hPa 0,0 l/m 0 min 0 min 0 W/m 16,7 km/h (3 Bft) 97,87 %
07.07.2017 00:22 20,8 C 20,0 C 18,9 C 89 % 0 lf 1014,8 hPa 0,0 l/m 0 min 0 min 0 W/m 18,8 km/h (3 Bft) 100,00 %
07.07.2017 00:24 20,8 C 20,0 C 18,9 C 89 % 0 lf 1014,7 hPa 0,0 l/m 0 min 0 min 0 W/m 16,7 km/h (3 Bft) 100,00 %
07.07.2017 00:26 20,7 C 20,0 C 18,9 C 89 % 0 lf 1014,8 hPa 0,0 l/m 0 min 0 min 0 W/m 27,2 km/h (4 Bft) 100,00 %
07.07.2017 00:28 20,7 C 20,0 C 18,9 C 89 % 0 lf 1014,6 hPa 0,0 l/m 0 min 0 min 0 W/m 20,9 km/h (4 Bft) 100,00 %
07.07.2017 00:30 20,7 C 20,0 C 18,9 C 89 % 0 lf 1014,5 hPa 0,0 l/m 0 min 0 min 0 W/m 20,9 km/h (4 Bft) 97,87 %
07.07.2017 00:32 20,7 C 20,0 C 18,9 C 90 % 0 lf 1014,5 hPa 0,0 l/m 0 min 0 min 0 W/m 18,8 km/h (3 Bft) 97,87 %
07.07.2017 00:34 20,6 C 20,0 C 18,9 C 90 % 0 lf 1014,4 hPa 0,0 l/m 0 min 0 min 0 W/m 18,8 km/h (3 Bft) 100,00 %
07.07.2017 00:36 20,6 C 20,0 C 18,9 C 90 % 1 lf 1014,4 hPa 0,0 l/m 0 min 0 min 0 W/m 16,7 km/h (3 Bft) 97,87 %
07.07.2017 00:38 20,6 C 20,0 C 18,9 C 90 % 1 lf 1014,2 hPa 0,0 l/m 0 min 0 min 0 W/m 14,6 km/h (3 Bft) 97,87 %
07.07.2017 00:40 20,6 C 20,0 C 18,9 C 90 % 1 lf 1014,1 hPa 0,0 l/m 0 min 0 min 0 W/m 16,7 km/h (3 Bft) 100,00 %
07.07.2017 00:42 20,6 C 20,0 C 18,9 C 90 % 0 lf 1014,0 hPa 0,0 l/m 0 min 0 min 0 W/m 18,8 km/h (3 Bft) 100,00 %
07.07.2017 00:44 20,5 C 20,0 C 18,9 C 90 % 0 lf 1014,0 hPa 0,0 l/m 0 min 0 min 0 W/m 14,6 km/h (3 Bft) 91,49 %
07.07.2017 00:46 20,4 C 20,0 C 18,9 C 90 % 0 lf 1014,0 hPa 0,0 l/m 0 min 0 min 0 W/m 18,8 km/h (3 Bft) 95,74 %
07.07.2017 00:48 20,4 C 20,0 C 18,9 C 90 % 0 lf 1014,0 hPa 0,0 l/m 0 min 0 min 0 W/m 18,8 km/h (3 Bft) 97,87 %
07.07.2017 00:50 20,4 C 20,0 C 18,9 C 90 % 0 lf 1013,9 hPa 0,0 l/m 0 min 0 min 0 W/m 12,6 km/h (3 Bft) 95,74 %
07.07.2017 00:52 20,4 C 20,0 C 18,9 C 90 % 0 lf 1013,7 hPa 0,0 l/m 0 min 0 min 0 W/m 14,6 km/h (3 Bft) 95,65 %
07.07.2017 00:54 20,4 C 20,0 C 18,9 C 89 % 0 lf 1013,7 hPa 0,0 l/m 0 min 0 min 0 W/m 20,9 km/h (4 Bft) 95,74 %
07.07.2017 00:56 20,3 C 20,0 C 18,9 C 89 % 0 lf 1013,6 hPa 0,0 l/m 0 min 0 min 0 W/m 31,4 km/h (5 Bft) 95,74 %
07.07.2017 00:58 20,3 C 20,0 C 18,9 C 89 % 0 lf 1013,6 hPa 0,0 l/m 0 min 0 min 0 W/m 18,8 km/h (3 Bft) 93,62 %
07.07.2017 01:00 20,3 C 20,0 C 18,9 C 89 % 0 lf 1013,7 hPa 0,0 l/m 0 min 0 min 0 W/m 10,5 km/h (2 Bft) 95,74 %
07.07.2017 01:02 20,3 C 20,0 C 18,9 C 89 % 0 lf 1013,7 hPa 0,0 l/m 0 min 0 min 0 W/m 8,4 km/h (2 Bft) 95,74 %
07.07.2017 01:04 20,3 C 20,0 C 18,9 C 89 % 0 lf 1013,6 hPa 0,0 l/m 0 min 0 min 0 W/m 20,9 km/h (4 Bft) 95,65 %
07.07.2017 01:06 20,3 C 20,0 C 18,9 C 89 % 0 lf 1013,4 hPa 0,0 l/m 0 min 0 min 0 W/m 27,2 km/h (4 Bft) 95,74 %
07.07.2017 01:08 20,3 C 20,0 C 18,9 C 89 % 0 lf 1013,3 hPa 0,0 l/m 0 min 0 min 0 W/m 27,2 km/h (4 Bft) 93,62 %
07.07.2017 01:10 20,3 C 20,0 C 18,9 C 89 % 0 lf 1013,2 hPa 0,0 l/m 0 min 0 min 0 W/m 27,2 km/h (4 Bft) 95,74 %
07.07.2017 01:12 20,3 C 20,0 C 18,9 C 89 % 0 lf 1013,2 hPa 0,0 l/m 0 min 0 min 0 W/m 18,8 km/h (3 Bft) 95,74 %
07.07.2017 01:14 20,3 C 20,0 C 18,3 C 89 % 0 lf 1013,2 hPa 0,0 l/m 0 min 0 min 0 W/m 14,6 km/h (3 Bft) 93,62 %
07.07.2017 01:16 20,3 C 20,0 C 18,3 C 89 % 0 lf 1013,3 hPa 0,0 l/m 0 min 0 min 0 W/m 12,6 km/h (3 Bft) 95,65 %
07.07.2017 01:18 20,3 C 20,0 C 18,3 C 89 % 0 lf 1013,3 hPa 0,0 l/m 0 min 0 min 0 W/m 20,9 km/h (4 Bft) 95,74 %
07.07.2017 01:20 20,3 C 20,0 C 18,3 C 89 % 0 lf 1013,3 hPa 0,0 l/m 0 min 0 min 0 W/m 14,6 km/h (3 Bft) 95,74 %
07.07.2017 01:22 20,3 C 20,0 C 18,3 C 89 % 0 lf 1013,4 hPa 0,0 l/m 0 min 0 min 0 W/m 18,8 km/h (3 Bft) 95,74 %
07.07.2017 01:24 20,3 C 20,0 C 18,3 C 89 % 0 lf 1013,3 hPa 0,0 l/m 0 min 0 min 0 W/m 16,7 km/h (3 Bft) 91,49 %
07.07.2017 01:26 20,3 C 20,0 C 18,3 C 89 % 0 lf 1013,3 hPa 0,0 l/m 0 min 0 min 0 W/m 14,6 km/h (3 Bft) 91,49 %
07.07.2017 01:28 20,3 C 20,0 C 18,3 C 89 % 0 lf 1013,4 hPa 0,0 l/m 0 min 0 min 0 W/m 14,6 km/h (3 Bft) 97,83 %
07.07.2017 01:30 20,2 C 20,0 C 18,3 C 89 % 0 lf 1013,4 hPa 0,0 l/m 0 min 0 min 0 W/m 14,6 km/h (3 Bft) 95,74 %
07.07.2017 01:32 20,2 C 20,0 C 18,3 C 89 % 0 lf 1013,4 hPa 0,0 l/m 0 min 0 min 0 W/m 10,5 km/h (2 Bft) 95,74 %
07.07.2017 01:34 20,2 C 20,0 C 18,3 C 88 % 0 lf 1013,3 hPa 0,0 l/m 0 min 0 min 0 W/m 10,5 km/h (2 Bft) 97,87 %
07.07.2017 01:36 20,2 C 20,0 C 18,3 C 88 % 0 lf 1013,3 hPa 0,0 l/m 0 min 0 min 0 W/m 10,5 km/h (2 Bft) 100,00 %
07.07.2017 01:38 20,2 C 20,0 C 18,3 C 88 % 0 lf 1013,4 hPa 0,0 l/m 0 min 0 min 0 W/m 10,5 km/h (2 Bft) 100,00 %
07.07.2017 01:40 20,2 C 20,0 C 18,3 C 88 % 0 lf 1013,5 hPa 0,0 l/m 0 min 0 min 0 W/m 12,6 km/h (3 Bft) 100,00 %
07.07.2017 01:42 20,2 C 19,4 C 18,3 C 88 % 0 lf 1013,5 hPa 0,0 l/m 0 min 0 min 0 W/m 6,3 km/h (2 Bft) 97,87 %
07.07.2017 01:44 20,2 C 19,4 C 17,8 C 88 % 0 lf 1013,5 hPa 0,0 l/m 0 min 0 min 0 W/m 4,2 km/h (1 Bft) 97,87 %
07.07.2017 01:46 20,2 C 19,4 C 17,8 C 88 % 0 lf 1013,7 hPa 0,0 l/m 0 min 0 min 0 W/m 0,0 km/h (0 Bft) 95,74 %
07.07.2017 01:48 20,2 C 19,4 C 17,8 C 88 % 0 lf 1013,8 hPa 0,0 l/m 0 min 0 min 0 W/m 4,2 km/h (1 Bft) 95,74 %
07.07.2017 01:50 20,1 C 19,4 C 17,8 C 88 % 0 lf 1013,8 hPa 0,0 l/m 0 min 0 min 0 W/m 6,3 km/h (2 Bft) 97,83 %
07.07.2017 01:52 20,1 C 18,9 C 17,2 C 88 % 0 lf 1013,9 hPa 0,0 l/m 0 min 0 min 0 W/m 4,2 km/h (1 Bft) 97,87 %
07.07.2017 01:54 20,1 C 18,9 C 17,2 C 88 % 0 lf 1013,8 hPa 0,0 l/m 0 min 0 min 0 W/m 0,0 km/h (0 Bft) 95,74 %
07.07.2017 01:56 20,1 C 18,9 C 17,2 C 88 % 1 lf 1013,8 hPa 0,0 l/m 0 min 0 min 0 W/m 4,2 km/h (1 Bft) 97,87 %
07.07.2017 01:58 20,1 C 18,9 C 17,2 C 88 % 1 lf 1013,7 hPa 0,0 l/m 0 min 0 min 0 W/m 4,2 km/h (1 Bft) 97,87 %
07.07.2017 02:00 20,1 C 18,9 C 17,2 C 88 % 1 lf 1013,6 hPa 0,0 l/m 0 min 0 min 0 W/m 6,3 km/h (2 Bft) 95,74 %
07.07.2017 02:02 20,1 C 18,9 C 17,2 C 88 % 1 lf 1013,5 hPa 0,0 l/m 0 min 0 min 0 W/m 6,3 km/h (2 Bft) 97,83 %
07.07.2017 02:04 20,0 C 18,9 C 17,2 C 88 % 1 lf 1013,4 hPa 0,0 l/m 0 min 0 min 0 W/m 6,3 km/h (2 Bft) 95,74 %
07.07.2017 02:06 20,0 C 18,9 C 17,2 C 88 % 1 lf 1013,4 hPa 0,0 l/m 0 min 0 min 0 W/m 14,6 km/h (3 Bft) 97,87 %
07.07.2017 02:08 19,9 C 18,9 C 17,2 C 88 % 1 lf 1013,4 hPa 0,0 l/m 0 min 0 min 0 W/m 10,5 km/h (2 Bft) 97,87 %
07.07.2017 02:10 19,9 C 18,9 C 17,2 C 88 % 1 lf 1013,4 hPa 0,0 l/m 0 min 0 min 0 W/m 14,6 km/h (3 Bft) 95,74 %
07.07.2017 02:12 19,9 C 18,9 C 17,2 C 88 % 0 lf 1013,3 hPa 0,0 l/m 0 min 0 min 0 W/m 8,4 km/h (2 Bft) 95,74 %
07.07.2017 02:14 19,9 C 18,9 C 17,2 C 88 % 0 lf 1013,3 hPa 0,0 l/m 0 min 0 min 0 W/m 8,4 km/h (2 Bft) 95,65 %
07.07.2017 02:16 19,8 C 18,9 C 17,2 C 88 % 0 lf 1013,3 hPa 0,0 l/m 0 min 0 min 0 W/m 12,6 km/h (3 Bft) 93,62 %
07.07.2017 02:18 19,8 C 18,9 C 17,2 C 88 % 0 lf 1013,2 hPa 0,0 l/m 0 min 0 min 0 W/m 6,3 km/h (2 Bft) 95,74 %
07.07.2017 02:20 19,8 C 18,9 C 17,2 C 88 % 0 lf 1013,2 hPa 0,0 l/m 0 min 0 min 0 W/m 8,4 km/h (2 Bft) 95,74 %
07.07.2017 02:22 19,8 C 18,9 C 17,2 C 88 % 0 lf 1013,1 hPa 0,0 l/m 0 min 0 min 0 W/m 14,6 km/h (3 Bft) 91,49 %
07.07.2017 02:24 19,7 C 18,9 C 17,8 C 88 % 0 lf 1013,2 hPa 0,0 l/m 0 min 0 min 0 W/m 14,6 km/h (3 Bft) 95,74 %
07.07.2017 02:26 19,7 C 18,9 C 17,2 C 88 % 1 lf 1013,2 hPa 0,0 l/m 0 min 0 min 0 W/m 10,5 km/h (2 Bft) 93,48 %
07.07.2017 02:28 19,7 C 18,9 C 17,2 C 88 % 0 lf 1013,2 hPa 0,0 l/m 0 min 0 min 0 W/m 6,3 km/h (2 Bft) 95,74 %
07.07.2017 02:30 19,7 C 18,9 C 17,2 C 88 % 0 lf 1013,2 hPa 0,0 l/m 0 min 0 min 0 W/m 4,2 km/h (1 Bft) 97,87 %
07.07.2017 02:32 19,7 C 18,9 C 17,2 C 88 % 0 lf 1013,2 hPa 0,0 l/m 0 min 0 min 0 W/m 2,1 km/h (1 Bft) 95,74 %
07.07.2017 02:34 19,7 C 18,3 C 17,2 C 88 % 1 lf 1013,2 hPa 0,0 l/m 0 min 0 min 0 W/m 4,2 km/h (1 Bft) 93,62 %
07.07.2017 02:36 19,7 C 18,3 C 17,2 C 88 % 1 lf 1013,3 hPa 0,0 l/m 0 min 0 min 0 W/m 2,1 km/h (1 Bft) 93,62 %
07.07.2017 02:38 19,6 C 18,3 C 16,7 C 88 % 1 lf 1013,2 hPa 0,0 l/m 0 min 0 min 0 W/m 0,0 km/h (0 Bft) 97,83 %
07.07.2017 02:40 19,6 C 18,3 C 16,7 C 88 % 1 lf 1013,3 hPa 0,0 l/m 0 min 0 min 0 W/m 0,0 km/h (0 Bft) 97,87 %
07.07.2017 02:42 19,6 C 17,8 C 16,7 C 88 % 1 lf 1013,2 hPa 0,0 l/m 0 min 0 min 0 W/m 0,0 km/h (0 Bft) 97,87 %
07.07.2017 02:44 19,6 C 17,8 C 16,7 C 88 % 1 lf 1013,0 hPa 0,0 l/m 0 min 0 min 0 W/m 0,0 km/h (0 Bft) 97,87 %
07.07.2017 02:46 19,6 C 17,8 C 16,1 C 88 % 1 lf 1012,9 hPa 0,0 l/m 0 min 0 min 0 W/m 2,1 km/h (1 Bft) 97,87 %
07.07.2017 02:48 19,5 C 17,8 C 16,1 C 88 % 1 lf 1012,9 hPa 0,0 l/m 0 min 0 min 0 W/m 4,2 km/h (1 Bft) 97,83 %
07.07.2017 02:50 19,5 C 17,8 C 16,1 C 88 % 1 lf 1012,8 hPa 0,0 l/m 0 min 0 min 0 W/m 4,2 km/h (1 Bft) 89,36 %
07.07.2017 02:52 19,4 C 17,8 C 16,1 C 88 % 1 lf 1012,8 hPa 0,0 l/m 0 min 0 min 0 W/m 6,3 km/h (2 Bft) 95,74 %
07.07.2017 02:54 19,4 C 17,8 C 16,1 C 88 % 1 lf 1012,8 hPa 0,0 l/m 0 min 0 min 0 W/m 2,1 km/h (1 Bft) 97,87 %
07.07.2017 02:56 19,4 C 17,8 C 16,1 C 88 % 1 lf 1012,7 hPa 0,0 l/m 0 min 0 min 0 W/m 2,1 km/h (1 Bft) 97,87 %
07.07.2017 02:58 19,3 C 18,3 C 16,1 C 88 % 1 lf 1012,6 hPa 0,0 l/m 0 min 0 min 0 W/m 6,3 km/h (2 Bft) 95,74 %
07.07.2017 03:00 19,3 C 17,8 C 16,1 C 88 % 1 lf 1012,7 hPa 0,0 l/m 0 min 0 min 0 W/m 4,2 km/h (1 Bft) 95,65 %
07.07.2017 03:02 19,3 C 17,8 C 16,1 C 88 % 1 lf 1012,7 hPa 0,0 l/m 0 min 0 min 0 W/m 4,2 km/h (1 Bft) 95,74 %
07.07.2017 03:04 19,3 C 18,3 C 16,1 C 88 % 1 lf 1012,6 hPa 0,0 l/m 0 min 0 min 0 W/m 4,2 km/h (1 Bft) 95,74 %
07.07.2017 03:06 19,2 C 18,3 C 16,1 C 88 % 1 lf 1012,6 hPa 0,0 l/m 0 min 0 min 0 W/m 2,1 km/h (1 Bft) 94,74 %
07.07.2017 03:08 19,2 C 18,3 C 16,1 C 89 % 1 lf 1012,6 hPa 0,0 l/m 0 min 0 min 0 W/m 4,2 km/h (1 Bft) 93,62 %
07.07.2017 03:10 19,2 C 18,3 C 16,1 C 89 % 1 lf 1012,6 hPa 0,0 l/m 0 min 0 min 0 W/m 6,3 km/h (2 Bft) 95,74 %
07.07.2017 03:12 19,2 C 18,3 C 16,1 C 89 % 1 lf 1012,6 hPa 0,0 l/m 0 min 0 min 0 W/m 4,2 km/h (1 Bft) 97,87 %
07.07.2017 03:14 19,1 C 18,3 C 16,1 C 89 % 1 lf 1012,7 hPa 0,0 l/m 0 min 0 min 0 W/m 6,3 km/h (2 Bft) 97,83 %
07.07.2017 03:16 19,1 C 18,3 C 16,7 C 89 % 1 lf 1012,7 hPa 0,0 l/m 0 min 0 min 0 W/m 6,3 km/h (2 Bft) 97,87 %
07.07.2017 03:18 19,1 C 18,3 C 16,7 C 89 % 1 lf 1012,7 hPa 0,0 l/m 0 min 0 min 0 W/m 6,3 km/h (2 Bft) 95,74 %
07.07.2017 03:20 19,1 C 18,3 C 16,7 C 90 % 1 lf 1012,8 hPa 0,0 l/m 0 min 0 min 0 W/m 4,2 km/h (1 Bft) 95,74 %
07.07.2017 03:22 19,1 C 18,3 C 16,7 C 90 % 1 lf 1012,7 hPa 0,0 l/m 0 min 0 min 0 W/m 4,2 km/h (1 Bft) 97,87 %
07.07.2017 03:24 19,1 C 18,3 C 16,7 C 90 % 1 lf 1012,7 hPa 0,0 l/m 0 min 0 min 0 W/m 6,3 km/h (2 Bft) 95,74 %
07.07.2017 03:26 19,1 C 18,3 C 16,7 C 90 % 1 lf 1012,7 hPa 0,0 l/m 0 min 0 min 0 W/m 6,3 km/h (2 Bft) 93,48 %
07.07.2017 03:28 19,0 C 18,3 C 17,2 C 90 % 1 lf 1012,7 hPa 0,0 l/m 0 min 0 min 0 W/m 4,2 km/h (1 Bft) 97,87 %
07.07.2017 03:30 19,0 C 18,3 C 17,2 C 90 % 1 lf 1012,7 hPa 0,0 l/m 0 min 0 min 0 W/m 6,3 km/h (2 Bft) 100,00 %
07.07.2017 03:32 19,0 C 18,3 C 17,2 C 90 % 1 lf 1012,7 hPa 0,0 l/m 0 min 0 min 0 W/m 4,2 km/h (1 Bft) 100,00 %
07.07.2017 03:34 19,0 C 18,3 C 16,7 C 91 % 1 lf 1012,7 hPa 0,0 l/m 0 min 0 min 0 W/m 4,2 km/h (1 Bft) 100,00 %
07.07.2017 03:36 19,0 C 18,3 C 16,7 C 91 % 1 lf 1012,6 hPa 0,0 l/m 0 min 0 min 0 W/m 4,2 km/h (1 Bft) 100,00 %
07.07.2017 03:38 19,0 C 18,3 C 16,7 C 91 % 1 lf 1012,6 hPa 0,0 l/m 0 min 0 min 0 W/m 0,0 km/h (0 Bft) 97,83 %
07.07.2017 03:40 18,9 C 18,3 C 16,7 C 91 % 1 lf 1012,6 hPa 0,0 l/m 0 min 0 min 0 W/m 2,1 km/h (1 Bft) 100,00 %
07.07.2017 03:42 18,9 C 18,3 C 16,7 C 91 % 1 lf 1012,6 hPa 0,0 l/m 0 min 0 min 0 W/m 2,1 km/h (1 Bft) 97,87 %
07.07.2017 03:44 18,9 C 18,3 C 16,7 C 91 % 1 lf 1012,6 hPa 0,0 l/m 0 min 0 min 0 W/m 6,3 km/h (2 Bft) 97,87 %
07.07.2017 03:46 18,9 C 18,9 C 17,2 C 91 % 1 lf 1012,5 hPa 0,0 l/m 0 min 0 min 0 W/m 8,4 km/h (2 Bft) 97,87 %
07.07.2017 03:48 18,9 C 18,3 C 16,7 C 91 % 1 lf 1012,6 hPa 0,0 l/m 0 min 0 min 0 W/m 6,3 km/h (2 Bft) 95,74 %
07.07.2017 03:50 18,9 C 18,3 C 16,7 C 91 % 1 lf 1012,5 hPa 0,0 l/m 0 min 0 min 0 W/m 6,3 km/h (2 Bft) 97,83 %
07.07.2017 03:52 18,9 C 18,3 C 16,7 C 91 % 1 lf 1012,5 hPa 0,0 l/m 0 min 0 min 0 W/m 6,3 km/h (2 Bft) 97,87 %
07.07.2017 03:54 18,9 C 18,3 C 16,7 C 91 % 1 lf 1012,6 hPa 0,0 l/m 0 min 0 min 0 W/m 8,4 km/h (2 Bft) 97,87 %
07.07.2017 03:56 18,9 C 18,3 C 16,7 C 91 % 1 lf 1012,5 hPa 0,0 l/m 0 min 0 min 0 W/m 6,3 km/h (2 Bft) 97,87 %
07.07.2017 03:58 18,9 C 18,3 C 16,7 C 91 % 1 lf 1012,6 hPa 0,0 l/m 0 min 0 min 0 W/m 8,4 km/h (2 Bft) 91,49 %
07.07.2017 04:00 18,8 C 18,3 C 17,2 C 91 % 1 lf 1012,6 hPa 0,0 l/m 0 min 0 min 0 W/m 8,4 km/h (2 Bft) 95,74 %
07.07.2017 04:02 18,8 C 18,3 C 17,2 C 92 % 1 lf 1012,6 hPa 0,0 l/m 0 min 0 min 0 W/m 6,3 km/h (2 Bft) 100,00 %
07.07.2017 04:04 18,8 C 18,3 C 17,2 C 92 % 1 lf 1012,6 hPa 0,0 l/m 0 min 0 min 0 W/m 6,3 km/h (2 Bft) 95,74 %
07.07.2017 04:06 18,8 C 18,9 C 17,2 C 92 % 1 lf 1012,6 hPa 0,0 l/m 0 min 0 min 0 W/m 4,2 km/h (1 Bft) 93,62 %
07.07.2017 04:08 18,8 C 18,9 C 17,2 C 92 % 1 lf 1012,6 hPa 0,0 l/m 0 min 0 min 0 W/m 4,2 km/h (1 Bft) 97,87 %
07.07.2017 04:10 18,8 C 18,9 C 17,2 C 92 % 1 lf 1012,5 hPa 0,0 l/m 0 min 0 min 0 W/m 6,3 km/h (2 Bft) 97,87 %
07.07.2017 04:12 18,8 C 18,3 C 17,2 C 92 % 1 lf 1012,5 hPa 0,0 l/m 0 min 0 min 0 W/m 6,3 km/h (2 Bft) 95,65 %
07.07.2017 04:14 18,8 C 18,3 C 17,2 C 92 % 1 lf 1012,4 hPa 0,0 l/m 0 min 0 min 0 W/m 6,3 km/h (2 Bft) 97,87 %
07.07.2017 04:16 18,8 C 18,9 C 16,7 C 92 % 1 lf 1012,4 hPa 0,0 l/m 0 min 0 min 0 W/m 12,6 km/h (3 Bft) 97,87 %
07.07.2017 04:18 18,8 C 18,3 C 16,7 C 92 % 1 lf 1012,4 hPa 0,0 l/m 0 min 0 min 0 W/m 8,4 km/h (2 Bft) 93,62 %
07.07.2017 04:20 18,8 C 18,3 C 16,7 C 92 % 1 lf 1012,4 hPa 0,0 l/m 0 min 0 min 0 W/m 8,4 km/h (2 Bft) 97,87 %
07.07.2017 04:22 18,8 C 18,3 C 16,7 C 92 % 1 lf 1012,4 hPa 0,0 l/m 0 min 0 min 0 W/m 6,3 km/h (2 Bft) 97,87 %
07.07.2017 04:24 18,8 C 18,3 C 16,7 C 92 % 1 lf 1012,4 hPa 0,0 l/m 0 min 0 min 0 W/m 6,3 km/h (2 Bft) 97,83 %
07.07.2017 04:26 18,8 C 18,3 C 16,7 C 92 % 1 lf 1012,5 hPa 0,0 l/m 0 min 0 min 0 W/m 2,1 km/h (1 Bft) 95,74 %
07.07.2017 04:28 18,7 C 18,3 C 16,1 C 92 % 1 lf 1012,5 hPa 0,0 l/m 0 min 0 min 0 W/m 0,0 km/h (0 Bft) 95,74 %
07.07.2017 04:30 18,7 C 18,3 C 16,1 C 91 % 1 lf 1012,5 hPa 0,0 l/m 0 min 0 min 0 W/m 0,0 km/h (0 Bft) 93,62 %
07.07.2017 04:32 18,7 C 17,8 C 16,1 C 91 % 1 lf 1012,5 hPa 0,0 l/m 0 min 0 min 0 W/m 0,0 km/h (0 Bft) 97,87 %
07.07.2017 04:34 18,7 C 17,8 C 16,1 C 91 % 1 lf 1012,5 hPa 0,0 l/m 0 min 0 min 0 W/m 0,0 km/h (0 Bft) 97,87 %
07.07.2017 04:36 18,7 C 17,8 C 15,6 C 91 % 1 lf 1012,6 hPa 0,0 l/m 0 min 0 min 0 W/m 0,0 km/h (0 Bft) 95,65 %
07.07.2017 04:38 18,7 C 17,8 C 15,6 C 91 % 1 lf 1012,5 hPa 0,0 l/m 0 min 0 min 0 W/m 0,0 km/h (0 Bft) 97,87 %
07.07.2017 04:40 18,7 C 17,2 C 15,6 C 91 % 1 lf 1012,5 hPa 0,0 l/m 0 min 0 min 0 W/m 0,0 km/h (0 Bft) 97,87 %
07.07.2017 04:42 18,7 C 17,2 C 15,6 C 91 % 1 lf 1012,5 hPa 0,0 l/m 0 min 0 min 0 W/m 0,0 km/h (0 Bft) 96,00 %
07.07.2017 04:44 18,7 C 17,2 C 15,6 C 91 % 1 lf 1012,6 hPa 0,0 l/m 0 min 0 min 0 W/m 0,0 km/h (0 Bft) 97,87 %
07.07.2017 04:46 18,6 C 17,2 C 15,6 C 91 % 1 lf 1012,6 hPa 0,0 l/m 0 min 0 min 0 W/m 0,0 km/h (0 Bft) 93,48 %
07.07.2017 04:48 18,6 C 17,2 C 15,6 C 91 % 1 lf 1012,6 hPa 0,0 l/m 0 min 0 min 0 W/m 0,0 km/h (0 Bft) 95,74 %
07.07.2017 04:50 18,6 C 17,2 C 15,6 C 91 % 1 lf 1012,6 hPa 0,0 l/m 0 min 0 min 0 W/m 0,0 km/h (0 Bft) 97,87 %
07.07.2017 04:52 18,6 C 16,7 C 15,0 C 91 % 1 lf 1012,6 hPa 0,0 l/m 0 min 0 min 0 W/m 0,0 km/h (0 Bft) 95,74 %
07.07.2017 04:54 18,6 C 17,2 C 15,0 C 91 % 1 lf 1012,6 hPa 0,0 l/m 0 min 0 min 0 W/m 0,0 km/h (0 Bft) 97,87 %
07.07.2017 04:56 18,5 C 17,2 C 15,0 C 91 % 2 lf 1012,6 hPa 0,0 l/m 0 min 0 min 0 W/m 0,0 km/h (0 Bft) 95,74 %
07.07.2017 04:58 18,5 C 17,2 C 15,0 C 91 % 2 lf 1012,6 hPa 0,0 l/m 0 min 0 min 0 W/m 0,0 km/h (0 Bft) 91,49 %
07.07.2017 05:00 18,5 C 17,2 C 15,0 C 91 % 2 lf 1012,6 hPa 0,0 l/m 0 min 0 min 0 W/m 0,0 km/h (0 Bft) 93,48 %
07.07.2017 05:02 18,4 C 17,2 C 15,0 C 91 % 2 lf 1012,6 hPa 0,0 l/m 0 min 0 min 0 W/m 0,0 km/h (0 Bft) 93,62 %
07.07.2017 05:04 18,4 C 17,2 C 15,0 C 91 % 2 lf 1012,6 hPa 0,0 l/m 0 min 0 min 0 W/m 0,0 km/h (0 Bft) 95,74 %
07.07.2017 05:06 18,4 C 17,2 C 15,0 C 91 % 2 lf 1012,6 hPa 0,0 l/m 0 min 0 min 0 W/m 0,0 km/h (0 Bft) 93,62 %
07.07.2017 05:08 18,4 C 17,2 C 15,0 C 91 % 2 lf 1012,6 hPa 0,0 l/m 0 min 0 min 0 W/m 0,0 km/h (0 Bft) 95,74 %
07.07.2017 05:10 18,3 C 17,2 C 15,0 C 91 % 2 lf 1012,6 hPa 0,0 l/m 0 min 0 min 0 W/m 0,0 km/h (0 Bft) 95,65 %
07.07.2017 05:12 18,3 C 17,2 C 15,0 C 91 % 2 lf 1012,6 hPa 0,0 l/m 0 min 0 min 0 W/m 0,0 km/h (0 Bft) 95,74 %
07.07.2017 05:14 18,3 C 17,2 C 15,0 C 91 % 2 lf 1012,6 hPa 0,0 l/m 0 min 0 min 0 W/m 0,0 km/h (0 Bft) 95,74 %
07.07.2017 05:16 18,3 C 17,2 C 15,0 C 91 % 2 lf 1012,6 hPa 0,0 l/m 0 min 0 min 0 W/m 0,0 km/h (0 Bft) 97,87 %
07.07.2017 05:18 18,2 C 17,2 C 15,0 C 91 % 2 lf 1012,6 hPa 0,0 l/m 0 min 0 min 0 W/m 0,0 km/h (0 Bft) 97,87 %
07.07.2017 05:20 18,2 C 17,2 C 15,6 C 91 % 2 lf 1012,7 hPa 0,0 l/m 0 min 0 min 0 W/m 0,0 km/h (0 Bft) 95,74 %
07.07.2017 05:22 18,2 C 17,2 C 15,6 C 91 % 1 lf 1012,7 hPa 0,0 l/m 0 min 0 min 0 W/m 0,0 km/h (0 Bft) 97,83 %
07.07.2017 05:24 18,2 C 17,2 C 15,6 C 91 % 1 lf 1012,8 hPa 0,0 l/m 0 min 0 min 0 W/m 0,0 km/h (0 Bft) 97,87 %
07.07.2017 05:26 18,2 C 17,2 C 15,6 C 91 % 1 lf 1012,8 hPa 0,0 l/m 0 min 0 min 0 W/m 0,0 km/h (0 Bft) 93,62 %
07.07.2017 05:28 18,1 C 17,2 C 15,6 C 91 % 1 lf 1012,9 hPa 0,0 l/m 0 min 0 min 0 W/m 0,0 km/h (0 Bft) 97,87 %
07.07.2017 05:30 18,1 C 17,8 C 16,1 C 91 % 1 lf 1012,9 hPa 0,0 l/m 0 min 0 min 0 W/m 6,3 km/h (2 Bft) 100,00 %
07.07.2017 05:32 18,1 C 17,8 C 16,1 C 92 % 1 lf 1012,9 hPa 0,0 l/m 0 min 0 min 0 W/m 2,1 km/h (1 Bft) 97,87 %
07.07.2017 05:34 18,1 C 17,8 C 16,1 C 92 % 1 lf 1012,8 hPa 0,0 l/m 0 min 0 min 0 W/m 4,2 km/h (1 Bft) 100,00 %
07.07.2017 05:36 18,1 C 17,8 C 16,1 C 92 % 1 lf 1012,9 hPa 0,0 l/m 0 min 0 min 4 W/m 4,2 km/h (1 Bft) 100,00 %
07.07.2017 05:38 18,1 C 17,8 C 16,1 C 92 % 1 lf 1013,0 hPa 0,0 l/m 0 min 0 min 5 W/m 8,4 km/h (2 Bft) 97,87 %
07.07.2017 05:40 18,2 C 17,8 C 16,1 C 92 % 1 lf 1013,1 hPa 0,0 l/m 0 min 0 min 5 W/m 10,5 km/h (2 Bft) 100,00 %
07.07.2017 05:42 18,2 C 17,8 C 16,1 C 92 % 1 lf 1013,1 hPa 0,0 l/m 0 min 0 min 7 W/m 8,4 km/h (2 Bft) 100,00 %
07.07.2017 05:44 18,2 C 17,2 C 16,1 C 92 % 1 lf 1013,1 hPa 0,0 l/m 0 min 0 min 7 W/m 8,4 km/h (2 Bft) 100,00 %
07.07.2017 05:46 18,1 C 17,2 C 16,1 C 93 % 1 lf 1013,0 hPa 0,0 l/m 0 min 0 min 10 W/m 6,3 km/h (2 Bft) 97,83 %
07.07.2017 05:48 18,1 C 17,2 C 16,1 C 93 % 1 lf 1013,0 hPa 0,0 l/m 0 min 0 min 11 W/m 4,2 km/h (1 Bft) 97,87 %
07.07.2017 05:50 18,1 C 17,2 C 16,1 C 93 % 1 lf 1012,9 hPa 0,0 l/m 0 min 0 min 13 W/m 2,1 km/h (1 Bft) 97,87 %
07.07.2017 05:52 18,1 C 17,2 C 16,1 C 93 % 2 lf 1012,9 hPa 0,0 l/m 0 min 0 min 15 W/m 0,0 km/h (0 Bft) 95,74 %
07.07.2017 05:54 18,1 C 17,2 C 15,6 C 93 % 2 lf 1013,0 hPa 0,0 l/m 0 min 0 min 17 W/m 0,0 km/h (0 Bft) 97,87 %
07.07.2017 05:56 18,1 C 17,2 C 15,6 C 92 % 2 lf 1013,0 hPa 0,0 l/m 0 min 0 min 18 W/m 2,1 km/h (1 Bft) 93,62 %
07.07.2017 05:58 18,1 C 17,2 C 15,6 C 93 % 1 lf 1013,0 hPa 0,0 l/m 0 min 0 min 20 W/m 2,1 km/h (1 Bft) 97,83 %
07.07.2017 06:00 18,0 C 17,2 C 16,1 C 93 % 1 lf 1013,0 hPa 0,0 l/m 0 min 0 min 21 W/m 4,2 km/h (1 Bft) 97,87 %
07.07.2017 06:02 18,0 C 17,2 C 16,1 C 93 % 1 lf 1013,0 hPa 0,0 l/m 0 min 0 min 22 W/m 8,4 km/h (2 Bft) 97,87 %
07.07.2017 06:04 18,0 C 17,2 C 16,1 C 93 % 1 lf 1013,1 hPa 0,0 l/m 0 min 0 min 22 W/m 8,4 km/h (2 Bft) 97,87 %
07.07.2017 06:06 18,0 C 17,2 C 16,1 C 93 % 1 lf 1013,1 hPa 0,0 l/m 0 min 0 min 24 W/m 8,4 km/h (2 Bft) 93,62 %
07.07.2017 06:08 18,0 C 17,2 C 16,1 C 93 % 1 lf 1013,1 hPa 0,0 l/m 0 min 0 min 26 W/m 8,4 km/h (2 Bft) 95,74 %
07.07.2017 06:10 17,9 C 17,2 C 16,1 C 93 % 1 lf 1013,0 hPa 0,0 l/m 0 min 0 min 29 W/m 6,3 km/h (2 Bft) 89,13 %
07.07.2017 06:12 17,9 C 17,2 C 16,1 C 93 % 1 lf 1013,0 hPa 0,0 l/m 0 min 0 min 35 W/m 4,2 km/h (1 Bft) 95,74 %
07.07.2017 06:14 17,9 C 17,2 C 16,1 C 93 % 1 lf 1012,9 hPa 0,0 l/m 0 min 0 min 43 W/m 4,2 km/h (1 Bft) 97,87 %
07.07.2017 06:16 17,9 C 17,2 C 16,1 C 93 % 1 lf 1013,0 hPa 0,0 l/m 2 min 0 min 48 W/m 0,0 km/h (0 Bft) 97,87 %
07.07.2017 06:18 17,9 C 17,2 C 16,1 C 93 % 1 lf 1013,0 hPa 0,0 l/m 2 min 0 min 51 W/m 0,0 km/h (0 Bft) 97,87 %
07.07.2017 06:20 17,9 C 17,2 C 15,6 C 93 % 1 lf 1012,9 hPa 0,0 l/m 2 min 0 min 53 W/m 6,3 km/h (2 Bft) 95,74 %
07.07.2017 06:22 17,8 C 17,8 C 16,1 C 93 % 1 lf 1012,8 hPa 0,0 l/m 0 min 0 min 51 W/m 6,3 km/h (2 Bft) 95,65 %
07.07.2017 06:24 17,8 C 17,8 C 16,1 C 93 % 1 lf 1012,8 hPa 0,0 l/m 2 min 0 min 55 W/m 6,3 km/h (2 Bft) 95,74 %
07.07.2017 06:26 17,8 C 17,8 C 16,1 C 93 % 1 lf 1012,8 hPa 0,0 l/m 0 min 0 min 52 W/m 6,3 km/h (2 Bft) 95,74 %
07.07.2017 06:28 17,8 C 17,8 C 16,1 C 93 % 1 lf 1012,8 hPa 0,0 l/m 0 min 0 min 56 W/m 6,3 km/h (2 Bft) 93,62 %
07.07.2017 06:30 17,8 C 17,8 C 16,1 C 94 % 1 lf 1012,7 hPa 0,0 l/m 0 min 0 min 56 W/m 6,3 km/h (2 Bft) 97,87 %
07.07.2017 06:32 17,8 C 17,8 C 16,1 C 94 % 1 lf 1012,7 hPa 0,0 l/m 0 min 0 min 55 W/m 8,4 km/h (2 Bft) 95,65 %
07.07.2017 06:34 17,8 C 17,8 C 16,1 C 94 % 1 lf 1012,7 hPa 0,0 l/m 0 min 0 min 49 W/m 8,4 km/h (2 Bft) 97,87 %
07.07.2017 06:37 17,8 C 17,8 C 16,1 C 94 % 1 lf 1012,6 hPa 0,0 l/m 0 min 0 min 41 W/m 6,3 km/h (2 Bft) 97,18 %
07.07.2017 06:40 17,9 C 17,8 C 16,1 C 94 % 1 lf 1012,6 hPa 0,0 l/m 0 min 0 min 37 W/m 6,3 km/h (2 Bft) 97,37 %
07.07.2017 06:42 17,9 C 17,8 C 16,7 C 94 % 1 lf 1012,5 hPa 0,0 l/m 0 min 0 min 43 W/m 6,3 km/h (2 Bft) 93,62 %
07.07.2017 06:44 17,9 C 18,3 C 16,7 C 94 % 1 lf 1012,5 hPa 0,0 l/m 2 min 0 min 85 W/m 8,4 km/h (2 Bft) 95,65 %
07.07.2017 06:46 17,9 C 18,3 C 16,7 C 94 % 1 lf 1012,5 hPa 0,0 l/m 2 min 0 min 106 W/m 8,4 km/h (2 Bft) 95,74 %
07.07.2017 06:48 17,9 C 18,3 C 16,7 C 94 % 1 lf 1012,5 hPa 0,0 l/m 2 min 0 min 112 W/m 8,4 km/h (2 Bft) 93,62 %
07.07.2017 06:50 18,0 C 18,3 C 16,7 C 94 % 1 lf 1012,5 hPa 0,0 l/m 2 min 0 min 116 W/m 6,3 km/h (2 Bft) 95,74 %
07.07.2017 06:52 18,0 C 18,3 C 16,7 C 95 % 1 lf 1012,5 hPa 0,0 l/m 2 min 0 min 121 W/m 6,3 km/h (2 Bft) 95,83 %
07.07.2017 06:54 18,0 C 18,3 C 16,7 C 95 % 1 lf 1012,5 hPa 0,0 l/m 2 min 0 min 127 W/m 10,5 km/h (2 Bft) 95,74 %
07.07.2017 06:56 18,0 C 18,3 C 16,7 C 95 % 1 lf 1012,6 hPa 0,0 l/m 2 min 0 min 132 W/m 8,4 km/h (2 Bft) 95,65 %
07.07.2017 06:58 18,1 C 18,9 C 17,2 C 95 % 1 lf 1012,6 hPa 0,0 l/m 2 min 0 min 137 W/m 8,4 km/h (2 Bft) 95,74 %
07.07.2017 07:00 18,1 C 18,9 C 17,2 C 95 % 1 lf 1012,6 hPa 0,0 l/m 2 min 0 min 142 W/m 6,3 km/h (2 Bft) 95,74 %
07.07.2017 07:02 18,1 C 18,9 C 17,2 C 95 % 1 lf 1012,6 hPa 0,0 l/m 2 min 0 min 148 W/m 6,3 km/h (2 Bft) 95,74 %
07.07.2017 07:04 18,1 C 18,9 C 17,2 C 95 % 1 lf 1012,6 hPa 0,0 l/m 2 min 0 min 152 W/m 4,2 km/h (1 Bft) 93,62 %
07.07.2017 07:06 18,1 C 18,9 C 17,2 C 95 % 1 lf 1012,6 hPa 0,0 l/m 2 min 0 min 158 W/m 8,4 km/h (2 Bft) 93,62 %
07.07.2017 07:08 18,2 C 18,9 C 17,2 C 95 % 1 lf 1012,6 hPa 0,0 l/m 2 min 0 min 164 W/m 6,3 km/h (2 Bft) 95,65 %
07.07.2017 07:10 18,2 C 18,9 C 17,2 C 95 % 1 lf 1012,6 hPa 0,0 l/m 2 min 0 min 171 W/m 8,4 km/h (2 Bft) 95,74 %
07.07.2017 07:12 18,2 C 18,9 C 17,2 C 95 % 1 lf 1012,6 hPa 0,0 l/m 2 min 0 min 177 W/m 10,5 km/h (2 Bft) 91,49 %
07.07.2017 07:14 18,3 C 18,9 C 17,2 C 95 % 1 lf 1012,5 hPa 0,0 l/m 2 min 0 min 181 W/m 10,5 km/h (2 Bft) 95,74 %
07.07.2017 07:16 18,3 C 18,9 C 17,8 C 95 % 1 lf 1012,5 hPa 0,0 l/m 2 min 0 min 186 W/m 14,6 km/h (3 Bft) 93,62 %
07.07.2017 07:18 18,3 C 19,4 C 17,8 C 95 % 1 lf 1012,5 hPa 0,0 l/m 2 min 0 min 188 W/m 8,4 km/h (2 Bft) 87,23 %
07.07.2017 07:20 18,4 C 19,4 C 17,8 C 95 % 1 lf 1012,5 hPa 0,0 l/m 2 min 0 min 196 W/m 10,5 km/h (2 Bft) 93,48 %
07.07.2017 07:22 18,4 C 19,4 C 17,8 C 95 % 1 lf 1012,4 hPa 0,0 l/m 2 min 0 min 202 W/m 14,6 km/h (3 Bft) 91,49 %
07.07.2017 07:24 18,5 C 19,4 C 17,8 C 95 % 1 lf 1012,4 hPa 0,0 l/m 2 min 0 min 201 W/m 16,7 km/h (3 Bft) 93,62 %
07.07.2017 07:26 18,6 C 19,4 C 17,8 C 95 % 1 lf 1012,4 hPa 0,0 l/m 2 min 0 min 213 W/m 14,6 km/h (3 Bft) 93,62 %
07.07.2017 07:28 18,6 C 19,4 C 17,8 C 95 % 1 lf 1012,4 hPa 0,0 l/m 2 min 0 min 218 W/m 12,6 km/h (3 Bft) 93,62 %
07.07.2017 07:30 18,6 C 20,0 C 18,3 C 95 % 1 lf 1012,4 hPa 0,0 l/m 2 min 0 min 222 W/m 12,6 km/h (3 Bft) 95,74 %
07.07.2017 07:32 18,7 C 20,0 C 18,3 C 95 % 1 lf 1012,4 hPa 0,0 l/m 2 min 0 min 227 W/m 14,6 km/h (3 Bft) 97,83 %
07.07.2017 07:34 18,7 C 20,0 C 18,3 C 95 % 1 lf 1012,4 hPa 0,0 l/m 2 min 0 min 230 W/m 10,5 km/h (2 Bft) 93,62 %
07.07.2017 07:36 18,8 C 20,0 C 18,3 C 95 % 0 lf 1012,5 hPa 0,0 l/m 2 min 0 min 230 W/m 10,5 km/h (2 Bft) 91,49 %
07.07.2017 07:38 18,8 C 20,0 C 18,3 C 95 % 0 lf 1012,5 hPa 0,0 l/m 2 min 0 min 233 W/m 12,6 km/h (3 Bft) 97,87 %
07.07.2017 07:40 18,8 C 20,6 C 18,3 C 95 % 0 lf 1012,4 hPa 0,0 l/m 2 min 0 min 240 W/m 8,4 km/h (2 Bft) 97,87 %
07.07.2017 07:42 18,9 C 20,6 C 18,3 C 95 % 0 lf 1012,4 hPa 0,0 l/m 2 min 0 min 232 W/m 12,6 km/h (3 Bft) 97,83 %
07.07.2017 07:44 18,9 C 20,6 C 18,3 C 95 % 0 lf 1012,3 hPa 0,0 l/m 2 min 0 min 260 W/m 12,6 km/h (3 Bft) 97,87 %
07.07.2017 07:46 19,0 C 20,6 C 18,9 C 95 % 0 lf 1012,4 hPa 0,0 l/m 2 min 0 min 265 W/m 12,6 km/h (3 Bft) 97,87 %
07.07.2017 07:48 19,0 C 20,6 C 18,9 C 94 % 0 lf 1012,3 hPa 0,0 l/m 2 min 0 min 268 W/m 14,6 km/h (3 Bft) 97,87 %
07.07.2017 07:50 19,0 C 21,1 C 18,9 C 94 % 0 lf 1012,4 hPa 0,0 l/m 2 min 0 min 271 W/m 16,7 km/h (3 Bft) 97,87 %
07.07.2017 07:52 19,1 C 21,1 C 18,9 C 94 % 0 lf 1012,4 hPa 0,0 l/m 2 min 0 min 277 W/m 10,5 km/h (2 Bft) 93,62 %
07.07.2017 07:54 19,2 C 21,1 C 18,9 C 93 % 0 lf 1012,5 hPa 0,0 l/m 2 min 0 min 282 W/m 12,6 km/h (3 Bft) 97,87 %
07.07.2017 07:56 19,2 C 21,1 C 19,4 C 92 % 0 lf 1012,4 hPa 0,0 l/m 2 min 0 min 289 W/m 10,5 km/h (2 Bft) 95,65 %
07.07.2017 07:58 19,3 C 21,1 C 18,9 C 92 % 0 lf 1012,5 hPa 0,0 l/m 2 min 0 min 291 W/m 10,5 km/h (2 Bft) 91,49 %
07.07.2017 08:00 19,3 C 21,1 C 19,4 C 91 % 0 lf 1012,4 hPa 0,0 l/m 2 min 0 min 292 W/m 14,6 km/h (3 Bft) 97,87 %
07.07.2017 08:02 19,4 C 21,1 C 19,4 C 90 % 0 lf 1012,4 hPa 0,0 l/m 2 min 0 min 302 W/m 8,4 km/h (2 Bft) 95,74 %
07.07.2017 08:04 19,5 C 21,1 C 19,4 C 90 % 0 lf 1012,4 hPa 0,0 l/m 2 min 0 min 307 W/m 12,6 km/h (3 Bft) 100,00 %
07.07.2017 08:06 19,6 C 21,1 C 19,4 C 89 % 0 lf 1012,4 hPa 0,0 l/m 2 min 0 min 314 W/m 12,6 km/h (3 Bft) 100,00 %
07.07.2017 08:08 19,6 C 21,7 C 19,4 C 88 % 0 lf 1012,3 hPa 0,0 l/m 2 min 0 min 319 W/m 8,4 km/h (2 Bft) 100,00 %
07.07.2017 08:10 19,7 C 21,7 C 19,4 C 88 % 0 lf 1012,4 hPa 0,0 l/m 2 min 0 min 324 W/m 18,8 km/h (3 Bft) 97,87 %
07.07.2017 08:12 19,8 C 21,7 C 19,4 C 87 % 0 lf 1012,3 hPa 0,0 l/m 2 min 0 min 330 W/m 14,6 km/h (3 Bft) 100,00 %
07.07.2017 08:14 19,9 C 21,7 C 19,4 C 87 % 0 lf 1012,3 hPa 0,0 l/m 2 min 0 min 336 W/m 20,9 km/h (4 Bft) 100,00 %
07.07.2017 08:16 20,0 C 21,7 C 19,4 C 86 % 0 lf 1012,4 hPa 0,0 l/m 2 min 0 min 343 W/m 20,9 km/h (4 Bft) 100,00 %
07.07.2017 08:18 20,1 C 21,7 C 19,4 C 85 % 0 lf 1012,4 hPa 0,0 l/m 2 min 0 min 349 W/m 16,7 km/h (3 Bft) 100,00 %
07.07.2017 08:20 20,2 C 21,7 C 19,4 C 85 % 0 lf 1012,4 hPa 0,0 l/m 2 min 0 min 353 W/m 16,7 km/h (3 Bft) 100,00 %
07.07.2017 08:22 20,3 C 21,7 C 19,4 C 85 % 0 lf 1012,3 hPa 0,0 l/m 2 min 0 min 359 W/m 14,6 km/h (3 Bft) 100,00 %
07.07.2017 08:24 20,4 C 21,7 C 20,0 C 85 % 0 lf 1012,3 hPa 0,0 l/m 2 min 0 min 365 W/m 25,1 km/h (4 Bft) 100,00 %
07.07.2017 08:26 20,5 C 22,2 C 20,0 C 84 % 0 lf 1012,4 hPa 0,0 l/m 2 min 0 min 368 W/m 23,0 km/h (4 Bft) 97,87 %
07.07.2017 08:28 20,6 C 22,2 C 20,0 C 84 % 0 lf 1012,3 hPa 0,0 l/m 2 min 0 min 374 W/m 20,9 km/h (4 Bft) 100,00 %
07.07.2017 08:30 20,7 C 23,3 C 20,0 C 83 % 0 lf 1012,4 hPa 0,0 l/m 2 min 0 min 380 W/m 16,7 km/h (3 Bft) 100,00 %
07.07.2017 08:32 20,8 C 24,4 C 20,0 C 83 % 0 lf 1012,4 hPa 0,0 l/m 2 min 0 min 386 W/m 16,7 km/h (3 Bft) 100,00 %
07.07.2017 08:34 20,9 C 26,7 C 20,0 C 83 % 0 lf 1012,5 hPa 0,0 l/m 2 min 0 min 389 W/m 16,7 km/h (3 Bft) 100,00 %
07.07.2017 08:36 21,0 C 27,8 C 20,0 C 83 % 0 lf 1012,5 hPa 0,0 l/m 2 min 0 min 394 W/m 23,0 km/h (4 Bft) 100,00 %
07.07.2017 08:38 21,1 C 27,8 C 20,0 C 82 % 0 lf 1012,5 hPa 0,0 l/m 2 min 0 min 398 W/m 23,0 km/h (4 Bft) 97,87 %
07.07.2017 08:40 21,3 C 28,3 C 20,0 C 81 % 0 lf 1012,6 hPa 0,0 l/m 2 min 0 min 406 W/m 27,2 km/h (4 Bft) 100,00 %
07.07.2017 08:42 21,4 C 28,9 C 20,6 C 81 % 0 lf 1012,6 hPa 0,0 l/m 2 min 0 min 410 W/m 25,1 km/h (4 Bft) 100,00 %
07.07.2017 08:44 21,5 C 28,9 C 20,6 C 81 % 0 lf 1012,6 hPa 0,0 l/m 2 min 0 min 416 W/m 25,1 km/h (4 Bft) 100,00 %
07.07.2017 08:46 21,7 C 28,9 C 20,6 C 80 % 0 lf 1012,7 hPa 0,0 l/m 2 min 0 min 419 W/m 23,0 km/h (4 Bft) 97,87 %
07.07.2017 08:48 21,8 C 28,3 C 20,6 C 80 % 0 lf 1012,7 hPa 0,0 l/m 2 min 0 min 425 W/m 14,6 km/h (3 Bft) 100,00 %
07.07.2017 08:50 22,0 C 28,9 C 20,6 C 79 % 0 lf 1012,6 hPa 0,0 l/m 2 min 0 min 430 W/m 18,8 km/h (3 Bft) 95,74 %
07.07.2017 08:52 22,1 C 28,9 C 21,1 C 79 % 0 lf 1012,6 hPa 0,0 l/m 2 min 0 min 435 W/m 14,6 km/h (3 Bft) 100,00 %
07.07.2017 08:54 22,2 C 30,0 C 21,1 C 79 % 0 lf 1012,5 hPa 0,0 l/m 2 min 0 min 440 W/m 14,6 km/h (3 Bft) 100,00 %
07.07.2017 08:56 22,4 C 30,6 C 21,1 C 78 % 0 lf 1012,6 hPa 0,0 l/m 2 min 0 min 447 W/m 20,9 km/h (4 Bft) 100,00 %
07.07.2017 08:58 22,5 C 31,1 C 21,1 C 78 % 0 lf 1012,6 hPa 0,0 l/m 2 min 0 min 452 W/m 23,0 km/h (4 Bft) 97,87 %
07.07.2017 09:00 22,6 C 30,6 C 21,1 C 77 % 0 lf 1012,7 hPa 0,0 l/m 2 min 0 min 456 W/m 20,9 km/h (4 Bft) 95,74 %
07.07.2017 09:02 22,7 C 29,4 C 21,1 C 77 % 0 lf 1012,6 hPa 0,0 l/m 2 min 0 min 463 W/m 23,0 km/h (4 Bft) 97,87 %
07.07.2017 09:04 22,8 C 29,4 C 21,1 C 77 % 0 lf 1012,6 hPa 0,0 l/m 2 min 0 min 468 W/m 16,7 km/h (3 Bft) 95,65 %
07.07.2017 09:06 22,9 C 30,0 C 21,7 C 77 % 0 lf 1012,7 hPa 0,0 l/m 2 min 0 min 468 W/m 23,0 km/h (4 Bft) 95,74 %
07.07.2017 09:08 23,1 C 29,4 C 21,7 C 76 % 0 lf 1012,7 hPa 0,0 l/m 2 min 0 min 382 W/m 20,9 km/h (4 Bft) 97,87 %
07.07.2017 09:10 23,1 C 28,9 C 21,7 C 76 % 0 lf 1012,8 hPa 0,0 l/m 2 min 0 min 390 W/m 20,9 km/h (4 Bft) 97,87 %
07.07.2017 09:12 23,2 C 29,4 C 21,7 C 76 % 0 lf 1012,8 hPa 0,0 l/m 2 min 0 min 431 W/m 18,8 km/h (3 Bft) 97,87 %
07.07.2017 09:14 23,3 C 30,0 C 21,7 C 76 % 0 lf 1012,8 hPa 0,0 l/m 2 min 0 min 508 W/m 20,9 km/h (4 Bft) 97,87 %
07.07.2017 09:16 23,4 C 30,6 C 22,2 C 76 % 0 lf 1012,8 hPa 0,0 l/m 2 min 0 min 550 W/m 12,6 km/h (3 Bft) 97,83 %
07.07.2017 09:18 23,5 C 31,7 C 22,8 C 76 % 0 lf 1012,8 hPa 0,0 l/m 2 min 0 min 592 W/m 20,9 km/h (4 Bft) 95,74 %
07.07.2017 09:20 23,6 C 30,0 C 22,8 C 75 % 0 lf 1012,7 hPa 0,0 l/m 2 min 0 min 642 W/m 25,1 km/h (4 Bft) 93,62 %
07.07.2017 09:22 23,7 C 27,8 C 23,3 C 75 % 0 lf 1012,7 hPa 0,0 l/m 2 min 0 min 407 W/m 27,2 km/h (4 Bft) 95,74 %
07.07.2017 09:24 23,7 C 27,2 C 22,8 C 74 % 0 lf 1012,7 hPa 0,0 l/m 2 min 0 min 282 W/m 23,0 km/h (4 Bft) 95,74 %
07.07.2017 09:26 23,7 C 26,7 C 22,8 C 74 % 0 lf 1012,7 hPa 0,0 l/m 2 min 0 min 279 W/m 23,0 km/h (4 Bft) 95,74 %
07.07.2017 09:28 23,8 C 28,9 C 23,3 C 75 % 0 lf 1012,8 hPa 0,0 l/m 2 min 0 min 330 W/m 23,0 km/h (4 Bft) 95,65 %
07.07.2017 09:30 23,8 C 29,4 C 23,3 C 74 % 0 lf 1012,8 hPa 0,0 l/m 2 min 0 min 578 W/m 23,0 km/h (4 Bft) 93,62 %
07.07.2017 09:32 23,8 C 27,8 C 22,8 C 74 % 0 lf 1012,8 hPa 0,0 l/m 2 min 0 min 522 W/m 20,9 km/h (4 Bft) 93,62 %
07.07.2017 09:34 23,8 C 28,3 C 22,8 C 75 % 0 lf 1012,7 hPa 0,0 l/m 0 min 0 min 153 W/m 18,8 km/h (3 Bft) 87,23 %
07.07.2017 09:36 23,9 C 30,6 C 23,9 C 75 % 0 lf 1012,8 hPa 0,0 l/m 2 min 0 min 523 W/m 14,6 km/h (3 Bft) 100,00 %
07.07.2017 09:38 24,0 C 32,2 C 25,6 C 75 % 0 lf 1012,8 hPa 0,0 l/m 2 min 0 min 581 W/m 16,7 km/h (3 Bft) 97,87 %
07.07.2017 09:40 24,1 C 32,2 C 26,7 C 75 % 0 lf 1012,8 hPa 0,0 l/m 2 min 0 min 578 W/m 16,7 km/h (3 Bft) 97,83 %
07.07.2017 09:42 24,2 C 33,3 C 27,8 C 75 % 0 lf 1012,8 hPa 0,0 l/m 2 min 0 min 579 W/m 12,6 km/h (3 Bft) 97,87 %
07.07.2017 09:44 24,3 C 32,8 C 28,3 C 75 % 0 lf 1012,8 hPa 0,0 l/m 2 min 0 min 577 W/m 23,0 km/h (4 Bft) 97,87 %
07.07.2017 09:46 24,4 C 32,8 C 27,8 C 74 % 0 lf 1012,8 hPa 0,0 l/m 2 min 0 min 578 W/m 20,9 km/h (4 Bft) 97,87 %
07.07.2017 09:48 24,5 C 33,3 C 27,8 C 74 % 0 lf 1012,8 hPa 0,0 l/m 2 min 0 min 580 W/m 20,9 km/h (4 Bft) 97,87 %
07.07.2017 09:50 24,6 C 33,3 C 27,8 C 73 % 0 lf 1012,8 hPa 0,0 l/m 2 min 0 min 580 W/m 20,9 km/h (4 Bft) 91,49 %
07.07.2017 09:52 24,7 C 32,8 C 28,9 C 73 % 0 lf 1012,8 hPa 0,0 l/m 2 min 0 min 588 W/m 12,6 km/h (3 Bft) 89,13 %
07.07.2017 09:54 24,8 C 33,9 C 28,9 C 73 % 0 lf 1012,8 hPa 0,0 l/m 2 min 0 min 564 W/m 16,7 km/h (3 Bft) 91,49 %
07.07.2017 09:56 24,9 C 32,2 C 29,4 C 73 % 0 lf 1012,8 hPa 0,0 l/m 2 min 0 min 595 W/m 18,8 km/h (3 Bft) 93,62 %
07.07.2017 09:58 25,1 C 32,2 C 29,4 C 73 % 0 lf 1012,7 hPa 0,0 l/m 2 min 0 min 611 W/m 14,6 km/h (3 Bft) 93,62 %
07.07.2017 10:00 25,1 C 32,8 C 30,0 C 73 % 0 lf 1012,8 hPa 0,0 l/m 2 min 0 min 638 W/m 16,7 km/h (3 Bft) 91,49 %
07.07.2017 10:02 25,2 C 32,8 C 29,4 C 72 % 0 lf 1012,8 hPa 0,0 l/m 2 min 0 min 565 W/m 16,7 km/h (3 Bft) 93,48 %
07.07.2017 10:04 25,3 C 33,3 C 28,9 C 72 % 0 lf 1012,8 hPa 0,0 l/m 2 min 0 min 391 W/m 12,6 km/h (3 Bft) 95,74 %
07.07.2017 10:06 25,4 C 32,8 C 28,9 C 72 % 0 lf 1012,8 hPa 0,0 l/m 2 min 0 min 478 W/m 16,7 km/h (3 Bft) 93,62 %
07.07.2017 10:08 25,5 C 33,3 C 29,4 C 72 % 0 lf 1012,8 hPa 0,0 l/m 2 min 0 min 461 W/m 18,8 km/h (3 Bft) 91,49 %
07.07.2017 10:10 25,6 C 33,3 C 29,4 C 72 % 0 lf 1012,9 hPa 0,0 l/m 2 min 0 min 542 W/m 14,6 km/h (3 Bft) 91,49 %
07.07.2017 10:12 25,7 C 33,9 C 29,4 C 72 % 0 lf 1012,9 hPa 0,0 l/m 2 min 0 min 554 W/m 16,7 km/h (3 Bft) 91,49 %
07.07.2017 10:14 25,7 C 32,8 C 30,0 C 71 % 0 lf 1012,8 hPa 0,0 l/m 2 min 0 min 631 W/m 16,7 km/h (3 Bft) 93,62 %
07.07.2017 10:16 25,8 C 32,2 C 30,0 C 71 % 0 lf 1012,8 hPa 0,0 l/m 2 min 0 min 656 W/m 18,8 km/h (3 Bft) 93,48 %
07.07.2017 10:18 25,8 C 32,8 C 30,0 C 71 % 0 lf 1012,8 hPa 0,0 l/m 2 min 0 min 656 W/m 14,6 km/h (3 Bft) 93,62 %
07.07.2017 10:20 25,9 C 32,2 C 30,0 C 72 % 0 lf 1012,8 hPa 0,0 l/m 2 min 0 min 629 W/m 14,6 km/h (3 Bft) 95,74 %
07.07.2017 10:22 25,9 C 33,9 C 30,0 C 72 % 0 lf 1012,8 hPa 0,0 l/m 2 min 0 min 618 W/m 14,6 km/h (3 Bft) 93,62 %
07.07.2017 10:24 26,1 C 35,0 C 30,6 C 72 % 0 lf 1012,8 hPa 0,0 l/m 2 min 0 min 637 W/m 12,6 km/h (3 Bft) 93,62 %
07.07.2017 10:26 26,1 C 32,8 C 30,6 C 71 % 0 lf 1012,9 hPa 0,0 l/m 2 min 0 min 631 W/m 20,9 km/h (4 Bft) 95,65 %
07.07.2017 10:28 26,2 C 33,3 C 31,1 C 71 % 0 lf 1012,8 hPa 0,0 l/m 2 min 0 min 645 W/m 16,7 km/h (3 Bft) 93,62 %
07.07.2017 10:30 26,3 C 33,9 C 31,1 C 71 % 0 lf 1012,7 hPa 0,0 l/m 2 min 0 min 662 W/m 14,6 km/h (3 Bft) 93,62 %
07.07.2017 10:32 26,4 C 35,0 C 31,7 C 71 % 0 lf 1012,7 hPa 0,0 l/m 2 min 0 min 670 W/m 16,7 km/h (3 Bft) 95,74 %
07.07.2017 10:34 26,5 C 35,0 C 31,1 C 71 % 0 lf 1012,7 hPa 0,0 l/m 2 min 0 min 676 W/m 16,7 km/h (3 Bft) 97,87 %
07.07.2017 10:36 26,6 C 35,0 C 31,7 C 71 % 0 lf 1012,8 hPa 0,0 l/m 2 min 0 min 694 W/m 14,6 km/h (3 Bft) 95,74 %
07.07.2017 10:38 26,7 C 35,0 C 32,2 C 71 % 0 lf 1012,8 hPa 0,0 l/m 2 min 0 min 686 W/m 18,8 km/h (3 Bft) 97,87 %
07.07.2017 10:40 26,8 C 34,4 C 32,2 C 71 % 0 lf 1012,8 hPa 0,0 l/m 2 min 0 min 660 W/m 16,7 km/h (3 Bft) 97,83 %
07.07.2017 10:42 26,9 C 35,6 C 32,2 C 70 % 0 lf 1012,8 hPa 0,0 l/m 2 min 0 min 607 W/m 10,5 km/h (2 Bft) 93,62 %
07.07.2017 10:44 27,1 C 35,0 C 32,2 C 70 % 0 lf 1012,8 hPa 0,0 l/m 2 min 0 min 592 W/m 20,9 km/h (4 Bft) 89,36 %
07.07.2017 10:46 27,2 C 35,0 C 31,7 C 69 % 0 lf 1012,8 hPa 0,0 l/m 2 min 0 min 629 W/m 16,7 km/h (3 Bft) 100,00 %
07.07.2017 10:48 27,2 C 36,1 C 31,7 C 69 % 0 lf 1012,8 hPa 0,0 l/m 2 min 0 min 669 W/m 16,7 km/h (3 Bft) 100,00 %
07.07.2017 10:50 27,3 C 36,1 C 32,8 C 70 % 0 lf 1012,9 hPa 0,0 l/m 2 min 0 min 705 W/m 16,7 km/h (3 Bft) 97,83 %
07.07.2017 10:52 27,4 C 35,6 C 32,2 C 69 % 0 lf 1012,9 hPa 0,0 l/m 2 min 0 min 683 W/m 18,8 km/h (3 Bft) 97,87 %
07.07.2017 10:54 27,5 C 35,6 C 32,8 C 69 % 0 lf 1012,9 hPa 0,0 l/m 2 min 0 min 732 W/m 25,1 km/h (4 Bft) 100,00 %
07.07.2017 10:56 27,6 C 36,1 C 32,8 C 69 % 0 lf 1012,9 hPa 0,0 l/m 2 min 0 min 773 W/m 16,7 km/h (3 Bft) 97,87 %
07.07.2017 10:58 27,7 C 36,1 C 33,3 C 69 % 0 lf 1012,9 hPa 0,0 l/m 2 min 0 min 777 W/m 16,7 km/h (3 Bft) 97,87 %
07.07.2017 11:00 27,7 C 36,1 C 32,8 C 69 % 0 lf 1012,9 hPa 0,0 l/m 2 min 0 min 623 W/m 14,6 km/h (3 Bft) 97,87 %
07.07.2017 11:02 27,8 C 35,6 C 32,8 C 68 % 0 lf 1012,9 hPa 0,0 l/m 2 min 0 min 688 W/m 14,6 km/h (3 Bft) 97,83 %
07.07.2017 11:04 27,9 C 35,6 C 32,8 C 69 % 0 lf 1012,9 hPa 0,0 l/m 2 min 0 min 641 W/m 12,6 km/h (3 Bft) 97,87 %
07.07.2017 11:06 27,9 C 35,6 C 32,8 C 69 % 0 lf 1012,9 hPa 0,0 l/m 2 min 0 min 631 W/m 18,8 km/h (3 Bft) 97,87 %
07.07.2017 11:08 27,9 C 36,7 C 33,9 C 69 % 0 lf 1012,9 hPa 0,0 l/m 2 min 0 min 753 W/m 12,6 km/h (3 Bft) 97,87 %
07.07.2017 11:10 28,0 C 35,0 C 33,3 C 68 % 0 lf 1012,9 hPa 0,0 l/m 2 min 0 min 803 W/m 20,9 km/h (4 Bft) 97,87 %
07.07.2017 11:12 28,1 C 35,6 C 33,3 C 68 % 0 lf 1013,0 hPa 0,0 l/m 2 min 0 min 774 W/m 16,7 km/h (3 Bft) 97,87 %
07.07.2017 11:14 28,1 C 35,0 C 33,3 C 68 % 0 lf 1013,0 hPa 0,0 l/m 2 min 0 min 786 W/m 12,6 km/h (3 Bft) 97,83 %
07.07.2017 11:16 28,2 C 35,6 C 32,8 C 68 % 0 lf 1013,0 hPa 0,0 l/m 2 min 0 min 766 W/m 10,5 km/h (2 Bft) 91,49 %
07.07.2017 11:18 28,3 C 35,0 C 33,3 C 68 % 0 lf 1013,0 hPa 0,0 l/m 2 min 0 min 726 W/m 16,7 km/h (3 Bft) 97,87 %
07.07.2017 11:20 28,3 C 35,0 C 32,8 C 68 % 0 lf 1013,0 hPa 0,0 l/m 2 min 0 min 655 W/m 20,9 km/h (4 Bft) 97,87 %
07.07.2017 11:22 28,3 C 35,6 C 33,3 C 68 % 0 lf 1013,0 hPa 0,0 l/m 2 min 0 min 671 W/m 16,7 km/h (3 Bft) 93,62 %
07.07.2017 11:24 28,4 C 35,6 C 33,3 C 68 % 0 lf 1013,0 hPa 0,0 l/m 2 min 0 min 758 W/m 23,0 km/h (4 Bft) 95,74 %
07.07.2017 11:26 28,4 C 35,6 C 33,3 C 68 % 0 lf 1013,0 hPa 0,0 l/m 2 min 0 min 709 W/m 16,7 km/h (3 Bft) 97,83 %
07.07.2017 11:28 28,4 C 35,6 C 33,3 C 67 % 0 lf 1013,1 hPa 0,0 l/m 2 min 0 min 720 W/m 14,6 km/h (3 Bft) 97,87 %
07.07.2017 11:30 28,4 C 35,0 C 32,8 C 67 % 0 lf 1013,0 hPa 0,0 l/m 2 min 0 min 765 W/m 23,0 km/h (4 Bft) 97,87 %
07.07.2017 11:32 28,4 C 35,0 C 32,2 C 68 % 0 lf 1013,0 hPa 0,0 l/m 2 min 0 min 769 W/m 18,8 km/h (3 Bft) 95,74 %
07.07.2017 11:34 28,4 C 35,6 C 31,7 C 68 % 0 lf 1013,1 hPa 0,0 l/m 2 min 0 min 785 W/m 16,7 km/h (3 Bft) 100,00 %
07.07.2017 11:36 28,6 C 36,7 C 31,7 C 69 % 0 lf 1013,0 hPa 0,0 l/m 2 min 0 min 794 W/m 23,0 km/h (4 Bft) 97,83 %
07.07.2017 11:38 28,7 C 35,0 C 32,2 C 68 % 0 lf 1013,1 hPa 0,0 l/m 2 min 0 min 867 W/m 23,0 km/h (4 Bft) 97,87 %
07.07.2017 11:40 28,7 C 33,9 C 31,1 C 67 % 0 lf 1013,1 hPa 0,0 l/m 2 min 0 min 554 W/m 14,6 km/h (3 Bft) 100,00 %
07.07.2017 11:42 28,7 C 33,9 C 32,2 C 68 % 0 lf 1013,1 hPa 0,0 l/m 0 min 0 min 339 W/m 12,6 km/h (3 Bft) 100,00 %
07.07.2017 11:44 28,7 C 34,4 C 32,8 C 67 % 0 lf 1013,1 hPa 0,0 l/m 2 min 0 min 833 W/m 20,9 km/h (4 Bft) 97,87 %
07.07.2017 11:46 28,7 C 36,1 C 33,9 C 67 % 0 lf 1013,1 hPa 0,0 l/m 2 min 0 min 834 W/m 18,8 km/h (3 Bft) 100,00 %
07.07.2017 11:48 28,8 C 37,2 C 35,0 C 68 % 0 lf 1013,0 hPa 0,0 l/m 2 min 0 min 854 W/m 12,6 km/h (3 Bft) 100,00 %
07.07.2017 11:50 28,9 C 38,3 C 35,0 C 67 % 0 lf 1013,0 hPa 0,0 l/m 2 min 0 min 788 W/m 18,8 km/h (3 Bft) 97,83 %
07.07.2017 11:52 29,0 C 36,7 C 34,4 C 66 % 0 lf 1013,1 hPa 0,0 l/m 2 min 0 min 770 W/m 16,7 km/h (3 Bft) 100,00 %
07.07.2017 11:54 29,1 C 37,2 C 34,4 C 67 % 0 lf 1013,0 hPa 0,0 l/m 2 min 0 min 598 W/m 14,6 km/h (3 Bft) 97,87 %
07.07.2017 11:56 29,2 C 36,1 C 33,3 C 66 % 0 lf 1013,0 hPa 0,0 l/m 2 min 0 min 633 W/m 18,8 km/h (3 Bft) 100,00 %
07.07.2017 11:58 29,2 C 35,6 C 33,3 C 66 % 0 lf 1012,9 hPa 0,0 l/m 2 min 0 min 678 W/m 25,1 km/h (4 Bft) 100,00 %
07.07.2017 12:00 29,2 C 36,7 C 33,9 C 66 % 0 lf 1013,0 hPa 0,0 l/m 2 min 0 min 838 W/m 23,0 km/h (4 Bft) 100,00 %
07.07.2017 12:02 29,3 C 36,1 C 33,9 C 66 % 0 lf 1012,9 hPa 0,0 l/m 2 min 0 min 844 W/m 18,8 km/h (3 Bft) 100,00 %
07.07.2017 12:04 29,3 C 35,6 C 33,9 C 66 % 0 lf 1012,9 hPa 0,0 l/m 2 min 0 min 809 W/m 20,9 km/h (4 Bft) 97,87 %
07.07.2017 12:06 29,4 C 36,1 C 33,9 C 66 % 0 lf 1012,9 hPa 0,0 l/m 2 min 0 min 838 W/m 16,7 km/h (3 Bft) 95,74 %
07.07.2017 12:08 29,4 C 36,7 C 34,4 C 65 % 0 lf 1013,0 hPa 0,0 l/m 2 min 0 min 844 W/m 14,6 km/h (3 Bft) 100,00 %
07.07.2017 12:10 29,5 C 37,2 C 35,0 C 65 % 0 lf 1013,0 hPa 0,0 l/m 2 min 0 min 851 W/m 20,9 km/h (4 Bft) 100,00 %
07.07.2017 12:12 29,6 C 35,6 C 34,4 C 65 % 0 lf 1013,0 hPa 0,0 l/m 2 min 0 min 836 W/m 29,3 km/h (5 Bft) 97,83 %
07.07.2017 12:14 29,6 C 35,6 C 34,4 C 64 % 0 lf 1012,9 hPa 0,0 l/m 2 min 0 min 834 W/m 23,0 km/h (4 Bft) 100,00 %
07.07.2017 12:16 29,6 C 36,1 C 34,4 C 64 % 0 lf 1013,0 hPa 0,0 l/m 2 min 0 min 826 W/m 27,2 km/h (4 Bft) 97,87 %
07.07.2017 12:18 29,6 C 36,1 C 34,4 C 63 % 0 lf 1013,0 hPa 0,0 l/m 2 min 0 min 847 W/m 23,0 km/h (4 Bft) 97,87 %
07.07.2017 12:20 29,6 C 34,4 C 33,3 C 63 % 0 lf 1012,9 hPa 0,0 l/m 2 min 0 min 524 W/m 14,6 km/h (3 Bft) 100,00 %
07.07.2017 12:22 29,6 C 35,0 C 33,3 C 64 % 0 lf 1012,9 hPa 0,0 l/m 0 min 0 min 209 W/m 18,8 km/h (3 Bft) 100,00 %
07.07.2017 12:24 29,6 C 36,1 C 34,4 C 64 % 0 lf 1012,9 hPa 0,0 l/m 0 min 0 min 274 W/m 18,8 km/h (3 Bft) 100,00 %
07.07.2017 12:26 29,7 C 36,1 C 35,0 C 64 % 0 lf 1013,0 hPa 0,0 l/m 0 min 0 min 274 W/m 16,7 km/h (3 Bft) 97,87 %
07.07.2017 12:28 29,7 C 35,0 C 33,9 C 64 % 0 lf 1012,9 hPa 0,0 l/m 2 min 0 min 937 W/m 16,7 km/h (3 Bft) 95,74 %
07.07.2017 12:30 29,8 C 34,4 C 33,3 C 64 % 0 lf 1012,9 hPa 0,0 l/m 2 min 0 min 926 W/m 23,0 km/h (4 Bft) 95,74 %
07.07.2017 12:32 29,8 C 36,7 C 34,4 C 64 % 0 lf 1012,9 hPa 0,0 l/m 2 min 0 min 902 W/m 18,8 km/h (3 Bft) 97,87 %
07.07.2017 12:34 29,9 C 37,2 C 35,0 C 65 % 0 lf 1012,9 hPa 0,0 l/m 2 min 0 min 893 W/m 18,8 km/h (3 Bft) 95,74 %
07.07.2017 12:36 30,1 C 37,2 C 35,6 C 64 % 0 lf 1012,9 hPa 0,0 l/m 2 min 0 min 904 W/m 18,8 km/h (3 Bft) 97,83 %
07.07.2017 12:38 30,1 C 36,1 C 35,0 C 63 % 0 lf 1013,0 hPa 0,0 l/m 2 min 0 min 911 W/m 25,1 km/h (4 Bft) 100,00 %
07.07.2017 12:40 30,2 C 37,2 C 35,0 C 63 % 0 lf 1012,9 hPa 0,0 l/m 2 min 0 min 901 W/m 12,6 km/h (3 Bft) 95,74 %
07.07.2017 12:42 30,2 C 35,6 C 34,4 C 62 % 0 lf 1012,9 hPa 0,0 l/m 2 min 0 min 861 W/m 25,1 km/h (4 Bft) 95,74 %
07.07.2017 12:44 30,3 C 36,7 C 34,4 C 63 % 0 lf 1012,9 hPa 0,0 l/m 2 min 0 min 900 W/m 25,1 km/h (4 Bft) 95,74 %
07.07.2017 12:46 30,3 C 37,2 C 33,9 C 61 % 0 lf 1012,9 hPa 0,0 l/m 2 min 0 min 910 W/m 23,0 km/h (4 Bft) 95,65 %
07.07.2017 12:48 30,4 C 37,2 C 33,9 C 62 % 0 lf 1013,0 hPa 0,0 l/m 2 min 0 min 860 W/m 27,2 km/h (4 Bft) 91,49 %
07.07.2017 12:50 30,5 C 37,2 C 33,3 C 61 % 0 lf 1013,0 hPa 0,0 l/m 2 min 0 min 913 W/m 20,9 km/h (4 Bft) 91,49 %
07.07.2017 12:52 30,6 C 37,8 C 33,9 C 61 % 0 lf 1013,0 hPa 0,0 l/m 2 min 0 min 976 W/m 23,0 km/h (4 Bft) 95,74 %
07.07.2017 12:54 30,7 C 37,8 C 33,9 C 61 % 0 lf 1013,1 hPa 0,0 l/m 2 min 0 min 942 W/m 18,8 km/h (3 Bft) 95,74 %
07.07.2017 12:56 30,7 C 36,7 C 33,9 C 60 % 0 lf 1013,1 hPa 0,0 l/m 2 min 0 min 958 W/m 27,2 km/h (4 Bft) 95,74 %
07.07.2017 12:58 30,7 C 35,0 C 33,3 C 60 % 0 lf 1013,0 hPa 0,0 l/m 2 min 0 min 909 W/m 27,2 km/h (4 Bft) 85,11 %
07.07.2017 13:00 30,6 C 33,3 C 32,8 C 60 % 0 lf 1013,0 hPa 0,0 l/m 2 min 0 min 595 W/m 23,0 km/h (4 Bft) 87,76 %
07.07.2017 13:02 30,5 C 33,9 C 32,8 C 60 % 0 lf 1013,0 hPa 0,0 l/m 2 min 0 min 528 W/m 18,8 km/h (3 Bft) 91,49 %
07.07.2017 13:04 30,5 C 36,1 C 33,3 C 61 % 0 lf 1013,0 hPa 0,0 l/m 2 min 0 min 773 W/m 20,9 km/h (4 Bft) 91,49 %
07.07.2017 13:06 30,6 C 36,1 C 33,3 C 62 % 0 lf 1013,0 hPa 0,0 l/m 2 min 0 min 730 W/m 10,5 km/h (2 Bft) 89,47 %
07.07.2017 13:08 30,6 C 36,1 C 33,3 C 62 % 0 lf 1013,1 hPa 0,0 l/m 2 min 0 min 632 W/m 16,7 km/h (3 Bft) 91,49 %
07.07.2017 13:10 30,6 C 34,4 C 33,3 C 60 % 0 lf 1013,1 hPa 0,0 l/m 0 min 0 min 341 W/m 25,1 km/h (4 Bft) 89,36 %
07.07.2017 13:12 30,5 C 34,4 C 32,8 C 60 % 0 lf 1013,1 hPa 0,0 l/m 2 min 0 min 426 W/m 25,1 km/h (4 Bft) 91,30 %
07.07.2017 13:14 30,5 C 35,6 C 33,3 C 61 % 0 lf 1013,0 hPa 0,0 l/m 2 min 0 min 594 W/m 23,0 km/h (4 Bft) 93,62 %
07.07.2017 13:16 30,5 C 36,1 C 33,9 C 60 % 0 lf 1013,0 hPa 0,0 l/m 2 min 0 min 731 W/m 16,7 km/h (3 Bft) 89,36 %
07.07.2017 13:18 30,5 C 36,7 C 34,4 C 63 % 0 lf 1013,0 hPa 0,0 l/m 2 min 0 min 731 W/m 16,7 km/h (3 Bft) 93,62 %
07.07.2017 13:20 30,6 C 36,7 C 33,3 C 61 % 0 lf 1013,0 hPa 0,0 l/m 2 min 0 min 731 W/m 16,7 km/h (3 Bft) 93,10 %
07.07.2017 13:22 30,6 C 35,0 C 32,8 C 61 % 0 lf 1013,0 hPa 0,0 l/m 2 min 0 min 731 W/m 16,7 km/h (3 Bft) 91,67 %
07.07.2017 13:24 30,6 C 36,1 C 32,2 C 59 % 0 lf 1013,1 hPa 0,0 l/m 2 min 0 min 824 W/m 29,3 km/h (5 Bft) 91,30 %
07.07.2017 13:26 30,5 C 36,1 C 32,2 C 59 % 0 lf 1013,1 hPa 0,0 l/m 2 min 0 min 965 W/m 23,0 km/h (4 Bft) 93,62 %
07.07.2017 13:28 30,6 C 37,2 C 32,8 C 60 % 0 lf 1013,1 hPa 0,0 l/m 2 min 0 min 947 W/m 23,0 km/h (4 Bft) 93,62 %
07.07.2017 13:30 30,7 C 37,8 C 33,3 C 59 % 0 lf 1013,1 hPa 0,0 l/m 2 min 0 min 965 W/m 20,9 km/h (4 Bft) 95,74 %
07.07.2017 13:32 30,7 C 37,2 C 33,3 C 60 % 0 lf 1013,2 hPa 0,0 l/m 2 min 0 min 986 W/m 23,0 km/h (4 Bft) 95,74 %
07.07.2017 13:34 30,7 C 34,4 C 32,2 C 58 % 0 lf 1013,1 hPa 0,0 l/m 2 min 0 min 458 W/m 27,2 km/h (4 Bft) 91,49 %
07.07.2017 13:36 30,7 C 35,6 C 32,2 C 60 % 0 lf 1013,1 hPa 0,0 l/m 2 min 0 min 546 W/m 12,6 km/h (3 Bft) 95,65 %
07.07.2017 13:38 30,7 C 35,6 C 32,2 C 59 % 0 lf 1013,1 hPa 0,0 l/m 2 min 0 min 970 W/m 29,3 km/h (5 Bft) 97,87 %
07.07.2017 13:40 30,7 C 35,0 C 31,7 C 58 % 0 lf 1013,1 hPa 0,0 l/m 2 min 0 min 432 W/m 18,8 km/h (3 Bft) 95,74 %
07.07.2017 13:42 30,7 C 33,9 C 31,7 C 59 % 0 lf 1013,1 hPa 0,0 l/m 0 min 0 min 243 W/m 18,8 km/h (3 Bft) 93,62 %
07.07.2017 13:44 30,6 C 33,3 C 31,1 C 58 % 0 lf 1013,2 hPa 0,0 l/m 0 min 0 min 238 W/m 27,2 km/h (4 Bft) 95,74 %
07.07.2017 13:46 30,5 C 32,2 C 30,6 C 58 % 0 lf 1013,2 hPa 0,0 l/m 0 min 0 min 229 W/m 18,8 km/h (3 Bft) 95,65 %
07.07.2017 13:48 30,4 C 31,1 C 30,6 C 58 % 0 lf 1013,2 hPa 0,0 l/m 0 min 0 min 229 W/m 18,8 km/h (3 Bft) 95,74 %
07.07.2017 13:50 30,2 C 31,1 C 30,0 C 58 % 0 lf 1013,2 hPa 0,0 l/m 0 min 0 min 248 W/m 27,2 km/h (4 Bft) 100,00 %
07.07.2017 13:52 30,1 C 31,1 C 30,0 C 59 % 0 lf 1013,2 hPa 0,0 l/m 0 min 0 min 309 W/m 16,7 km/h (3 Bft) 100,00 %
07.07.2017 13:54 29,9 C 31,1 C 30,6 C 59 % 0 lf 1013,2 hPa 0,0 l/m 0 min 0 min 267 W/m 16,7 km/h (3 Bft) 100,00 %
07.07.2017 13:56 29,8 C 30,6 C 30,0 C 60 % 0 lf 1013,2 hPa 0,0 l/m 0 min 0 min 209 W/m 14,6 km/h (3 Bft) 97,87 %
07.07.2017 13:58 29,8 C 30,6 C 29,4 C 61 % 0 lf 1013,2 hPa 0,0 l/m 0 min 0 min 160 W/m 18,8 km/h (3 Bft) 95,65 %
07.07.2017 14:00 29,6 C 30,0 C 28,9 C 61 % 0 lf 1013,3 hPa 0,0 l/m 0 min 0 min 131 W/m 16,7 km/h (3 Bft) 100,00 %
07.07.2017 14:02 29,5 C 29,4 C 28,3 C 61 % 0 lf 1013,3 hPa 0,0 l/m 0 min 0 min 120 W/m 25,1 km/h (4 Bft) 100,00 %
07.07.2017 14:04 29,4 C 28,9 C 27,8 C 61 % 0 lf 1013,3 hPa 0,0 l/m 0 min 0 min 119 W/m 23,0 km/h (4 Bft) 100,00 %
07.07.2017 14:06 29,2 C 28,9 C 27,8 C 62 % 0 lf 1013,3 hPa 0,0 l/m 0 min 0 min 139 W/m 23,0 km/h (4 Bft) 100,00 %
07.07.2017 14:08 29,1 C 30,0 C 28,9 C 62 % 0 lf 1013,4 hPa 0,0 l/m 0 min 0 min 153 W/m 27,2 km/h (4 Bft) 100,00 %
07.07.2017 14:10 29,1 C 32,8 C 31,7 C 63 % 0 lf 1013,3 hPa 0,0 l/m 2 min 0 min 720 W/m 16,7 km/h (3 Bft) 97,83 %
07.07.2017 14:12 29,1 C 34,4 C 33,9 C 63 % 0 lf 1013,2 hPa 0,0 l/m 2 min 0 min 933 W/m 27,2 km/h (4 Bft) 100,00 %
07.07.2017 14:14 29,2 C 35,6 C 35,6 C 64 % 0 lf 1013,2 hPa 0,0 l/m 2 min 0 min 931 W/m 16,7 km/h (3 Bft) 100,00 %
07.07.2017 14:16 29,4 C 37,2 C 37,2 C 63 % 0 lf 1013,2 hPa 0,0 l/m 2 min 0 min 964 W/m 16,7 km/h (3 Bft) 97,87 %
07.07.2017 14:18 29,7 C 36,7 C 37,2 C 63 % 0 lf 1013,2 hPa 0,0 l/m 2 min 0 min 987 W/m 16,7 km/h (3 Bft) 97,87 %
07.07.2017 14:20 29,8 C 35,0 C 35,0 C 61 % 0 lf 1013,4 hPa 0,0 l/m 2 min 0 min 977 W/m 20,9 km/h (4 Bft) 100,00 %
07.07.2017 14:22 29,9 C 33,9 C 34,4 C 61 % 0 lf 1013,4 hPa 0,0 l/m 0 min 0 min 394 W/m 27,2 km/h (4 Bft) 97,14 %
07.07.2017 14:24 30,0 C 33,3 C 33,3 C 62 % 0 lf 1013,4 hPa 0,0 l/m 0 min 0 min 232 W/m 33,5 km/h (5 Bft) 100,00 %
07.07.2017 14:26 30,0 C 32,2 C 31,1 C 61 % 0 lf 1013,5 hPa 0,0 l/m 0 min 0 min 173 W/m 37,7 km/h (5 Bft) 97,87 %
07.07.2017 14:28 29,9 C 31,1 C 30,6 C 60 % 0 lf 1013,5 hPa 0,0 l/m 0 min 0 min 193 W/m 37,7 km/h (5 Bft) 100,00 %
07.07.2017 14:30 29,8 C 31,7 C 31,7 C 61 % 0 lf 1013,5 hPa 0,0 l/m 0 min 0 min 217 W/m 25,1 km/h (4 Bft) 100,00 %
07.07.2017 14:32 29,8 C 31,7 C 31,7 C 59 % 0 lf 1013,5 hPa 0,0 l/m 0 min 0 min 256 W/m 25,1 km/h (4 Bft) 97,87 %
07.07.2017 14:34 29,7 C 31,7 C 32,2 C 58 % 0 lf 1013,4 hPa 0,0 l/m 0 min 0 min 260 W/m 23,0 km/h (4 Bft) 97,83 %
07.07.2017 14:36 29,6 C 31,1 C 31,1 C 57 % 0 lf 1013,5 hPa 0,0 l/m 0 min 0 min 270 W/m 29,3 km/h (5 Bft) 100,00 %
07.07.2017 14:38 29,6 C 31,1 C 31,1 C 56 % 0 lf 1013,5 hPa 0,0 l/m 0 min 0 min 313 W/m 27,2 km/h (4 Bft) 97,87 %
07.07.2017 14:40 29,4 C 31,1 C 31,1 C 57 % 0 lf 1013,6 hPa 0,0 l/m 0 min 0 min 267 W/m 25,1 km/h (4 Bft) 100,00 %
07.07.2017 14:42 29,4 C 32,2 C 32,8 C 58 % 0 lf 1013,6 hPa 0,0 l/m 2 min 0 min 892 W/m 27,2 km/h (4 Bft) 95,74 %
07.07.2017 14:44 29,4 C 32,2 C 32,8 C 59 % 0 lf 1013,6 hPa 0,0 l/m 2 min 0 min 469 W/m 25,1 km/h (4 Bft) 95,74 %
07.07.2017 14:46 29,5 C 32,8 C 33,3 C 59 % 0 lf 1013,7 hPa 0,0 l/m 2 min 0 min 469 W/m 27,2 km/h (4 Bft) 100,00 %
07.07.2017 14:48 29,6 C 34,4 C 36,1 C 59 % 0 lf 1013,6 hPa 0,0 l/m 2 min 0 min 922 W/m 23,0 km/h (4 Bft) 100,00 %
07.07.2017 14:50 29,7 C 35,6 C 37,8 C 58 % 0 lf 1013,6 hPa 0,0 l/m 2 min 0 min 923 W/m 23,0 km/h (4 Bft) 96,61 %
07.07.2017 14:52 29,9 C 36,1 C 38,9 C 60 % 0 lf 1013,7 hPa 0,0 l/m 2 min 0 min 925 W/m 23,0 km/h (4 Bft) 97,14 %
07.07.2017 14:54 30,1 C 36,7 C 39,4 C 58 % 0 lf 1013,7 hPa 0,0 l/m 2 min 0 min 951 W/m 27,2 km/h (4 Bft) 97,87 %
07.07.2017 14:56 30,3 C 36,7 C 40,0 C 54 % 0 lf 1013,7 hPa 0,0 l/m 2 min 0 min 939 W/m 25,1 km/h (4 Bft) 97,96 %
07.07.2017 14:58 30,5 C 36,1 C 40,0 C 51 % 0 lf 1013,7 hPa 0,0 l/m 2 min 0 min 919 W/m 31,4 km/h (5 Bft) 97,87 %
07.07.2017 15:00 30,6 C 36,1 C 39,4 C 51 % 0 lf 1013,7 hPa 0,0 l/m 2 min 0 min 885 W/m 23,0 km/h (4 Bft) 97,87 %
07.07.2017 15:02 30,8 C 36,1 C 39,4 C 53 % 0 lf 1013,7 hPa 0,0 l/m 2 min 0 min 884 W/m 25,1 km/h (4 Bft) 97,87 %
07.07.2017 15:04 30,9 C 36,1 C 39,4 C 53 % 0 lf 1013,6 hPa 0,0 l/m 2 min 0 min 870 W/m 27,2 km/h (4 Bft) 95,74 %
07.07.2017 15:06 31,0 C 36,1 C 39,4 C 52 % 0 lf 1013,6 hPa 0,0 l/m 2 min 0 min 862 W/m 25,1 km/h (4 Bft) 93,62 %
07.07.2017 15:08 31,1 C 36,1 C 39,4 C 51 % 0 lf 1013,6 hPa 0,0 l/m 2 min 0 min 891 W/m 20,9 km/h (4 Bft) 93,48 %
07.07.2017 15:10 31,1 C 36,1 C 40,0 C 51 % 0 lf 1013,6 hPa 0,0 l/m 2 min 0 min 886 W/m 27,2 km/h (4 Bft) 93,62 %
07.07.2017 15:12 31,2 C 36,7 C 40,6 C 51 % 0 lf 1013,5 hPa 0,0 l/m 2 min 0 min 872 W/m 20,9 km/h (4 Bft) 91,49 %
07.07.2017 15:14 31,3 C 36,7 C 41,1 C 52 % 0 lf 1013,7 hPa 0,0 l/m 2 min 0 min 884 W/m 29,3 km/h (5 Bft) 91,49 %
07.07.2017 15:16 31,4 C 35,6 C 40,0 C 51 % 0 lf 1013,7 hPa 0,0 l/m 2 min 0 min 903 W/m 23,0 km/h (4 Bft) 89,36 %
07.07.2017 15:18 31,4 C 35,0 C 38,9 C 50 % 0 lf 1013,7 hPa 0,0 l/m 2 min 0 min 699 W/m 23,0 km/h (4 Bft) 91,49 %
07.07.2017 15:20 31,4 C 35,6 C 39,4 C 50 % 0 lf 1013,7 hPa 0,0 l/m 2 min 0 min 793 W/m 27,2 km/h (4 Bft) 95,65 %
07.07.2017 15:22 31,4 C 35,6 C 39,4 C 51 % 0 lf 1013,6 hPa 0,0 l/m 2 min 0 min 838 W/m 29,3 km/h (5 Bft) 91,49 %
07.07.2017 15:24 31,4 C 36,1 C 40,0 C 52 % 0 lf 1013,7 hPa 0,0 l/m 2 min 0 min 835 W/m 18,8 km/h (3 Bft) 89,36 %
07.07.2017 15:26 31,5 C 35,6 C 40,6 C 52 % 0 lf 1013,7 hPa 0,0 l/m 2 min 0 min 852 W/m 29,3 km/h (5 Bft) 93,62 %
07.07.2017 15:28 31,6 C 35,6 C 40,6 C 53 % 0 lf 1013,7 hPa 0,0 l/m 2 min 0 min 861 W/m 25,1 km/h (4 Bft) 97,87 %
07.07.2017 15:30 31,6 C 35,6 C 40,6 C 53 % 0 lf 1013,7 hPa 0,0 l/m 2 min 0 min 858 W/m 16,7 km/h (3 Bft) 93,62 %
07.07.2017 15:32 31,7 C 35,6 C 40,6 C 52 % 0 lf 1013,6 hPa 0,0 l/m 2 min 0 min 820 W/m 25,1 km/h (4 Bft) 97,83 %
07.07.2017 15:34 31,7 C 35,6 C 40,6 C 51 % 0 lf 1013,6 hPa 0,0 l/m 2 min 0 min 835 W/m 29,3 km/h (5 Bft) 97,87 %
07.07.2017 15:36 31,7 C 35,0 C 40,0 C 52 % 0 lf 1013,6 hPa 0,0 l/m 2 min 0 min 778 W/m 29,3 km/h (5 Bft) 95,74 %
07.07.2017 15:38 31,7 C 34,4 C 39,4 C 50 % 0 lf 1013,7 hPa 0,0 l/m 2 min 0 min 676 W/m 29,3 km/h (5 Bft) 97,87 %
07.07.2017 15:40 31,6 C 34,4 C 39,4 C 51 % 0 lf 1013,7 hPa 0,0 l/m 2 min 0 min 790 W/m 27,2 km/h (4 Bft) 97,87 %
07.07.2017 15:42 31,6 C 34,4 C 38,9 C 51 % 0 lf 1013,7 hPa 0,0 l/m 2 min 0 min 814 W/m 29,3 km/h (5 Bft) 93,62 %
07.07.2017 15:44 31,5 C 33,9 C 37,8 C 51 % 0 lf 1013,7 hPa 0,0 l/m 2 min 0 min 768 W/m 25,1 km/h (4 Bft) 97,83 %
07.07.2017 15:46 31,4 C 32,8 C 35,6 C 51 % 0 lf 1013,7 hPa 0,0 l/m 0 min 0 min 258 W/m 31,4 km/h (5 Bft) 95,74 %
07.07.2017 15:48 31,3 C 32,2 C 34,4 C 51 % 0 lf 1013,7 hPa 0,0 l/m 0 min 0 min 259 W/m 31,4 km/h (5 Bft) 95,74 %
07.07.2017 15:50 31,2 C 33,3 C 36,7 C 51 % 0 lf 1013,7 hPa 0,0 l/m 2 min 0 min 470 W/m 18,8 km/h (3 Bft) 97,87 %
07.07.2017 15:52 31,1 C 33,9 C 37,8 C 52 % 0 lf 1013,6 hPa 0,0 l/m 2 min 0 min 802 W/m 25,1 km/h (4 Bft) 97,87 %
07.07.2017 15:54 31,1 C 34,4 C 38,3 C 53 % 0 lf 1013,6 hPa 0,0 l/m 2 min 0 min 773 W/m 20,9 km/h (4 Bft) 97,87 %
07.07.2017 15:56 31,1 C 33,3 C 36,7 C 51 % 0 lf 1013,6 hPa 0,0 l/m 2 min 0 min 557 W/m 29,3 km/h (5 Bft) 95,65 %
07.07.2017 15:58 31,0 C 33,9 C 37,8 C 52 % 0 lf 1013,6 hPa 0,0 l/m 0 min 0 min 269 W/m 25,1 km/h (4 Bft) 95,74 %
07.07.2017 16:00 31,0 C 33,9 C 38,9 C 52 % 0 lf 1013,5 hPa 0,0 l/m 2 min 0 min 798 W/m 23,0 km/h (4 Bft) 97,87 %
07.07.2017 16:02 30,9 C 32,8 C 37,2 C 51 % 0 lf 1013,6 hPa 0,0 l/m 2 min 0 min 739 W/m 27,2 km/h (4 Bft) 97,87 %
07.07.2017 16:04 30,9 C 32,8 C 35,6 C 51 % 0 lf 1013,6 hPa 0,0 l/m 2 min 0 min 482 W/m 20,9 km/h (4 Bft) 93,62 %
07.07.2017 16:06 30,9 C 32,8 C 36,7 C 51 % 0 lf 1013,6 hPa 0,0 l/m 0 min 0 min 278 W/m 20,9 km/h (4 Bft) 97,87 %
07.07.2017 16:08 30,9 C 32,8 C 36,7 C 51 % 0 lf 1013,5 hPa 0,0 l/m 0 min 0 min 331 W/m 27,2 km/h (4 Bft) 98,15 %
07.07.2017 16:10 30,9 C 32,8 C 35,0 C 51 % 0 lf 1013,6 hPa 0,0 l/m 2 min 0 min 368 W/m 25,1 km/h (4 Bft) 95,74 %
07.07.2017 16:13 30,8 C 32,8 C 36,7 C 51 % 0 lf 1013,5 hPa 0,0 l/m 3 min 0 min 407 W/m 29,3 km/h (5 Bft) 97,14 %
07.07.2017 16:14 30,8 C 32,8 C 36,7 C 51 % 0 lf 1013,5 hPa 0,0 l/m 1 min 0 min 682 W/m 18,8 km/h (3 Bft) 95,83 %
07.07.2017 16:16 30,8 C 33,3 C 37,8 C 52 % 0 lf 1013,4 hPa 0,0 l/m 2 min 0 min 687 W/m 23,0 km/h (4 Bft) 97,83 %
07.07.2017 16:18 30,9 C 33,3 C 38,9 C 52 % 0 lf 1013,5 hPa 0,0 l/m 2 min 0 min 758 W/m 25,1 km/h (4 Bft) 97,87 %
07.07.2017 16:20 31,0 C 33,9 C 39,4 C 52 % 0 lf 1013,4 hPa 0,0 l/m 2 min 0 min 719 W/m 14,6 km/h (3 Bft) 97,87 %
07.07.2017 16:22 31,1 C 34,4 C 40,6 C 53 % 0 lf 1013,4 hPa 0,0 l/m 2 min 0 min 768 W/m 20,9 km/h (4 Bft) 93,62 %
07.07.2017 16:24 31,2 C 33,9 C 40,0 C 53 % 0 lf 1013,5 hPa 0,0 l/m 2 min 0 min 648 W/m 18,8 km/h (3 Bft) 97,87 %
07.07.2017 16:26 31,3 C 33,9 C 39,4 C 51 % 0 lf 1013,5 hPa 0,0 l/m 0 min 0 min 348 W/m 18,8 km/h (3 Bft) 95,74 %
07.07.2017 16:28 31,3 C 33,3 C 39,4 C 52 % 0 lf 1013,5 hPa 0,0 l/m 2 min 0 min 584 W/m 25,1 km/h (4 Bft) 95,65 %
07.07.2017 16:30 31,4 C 33,3 C 39,4 C 51 % 0 lf 1013,5 hPa 0,0 l/m 2 min 0 min 713 W/m 29,3 km/h (5 Bft) 93,62 %
07.07.2017 16:32 31,4 C 32,8 C 39,4 C 48 % 0 lf 1013,5 hPa 0,0 l/m 2 min 0 min 639 W/m 25,1 km/h (4 Bft) 93,62 %
07.07.2017 16:34 31,4 C 32,8 C 38,3 C 48 % 0 lf 1013,5 hPa 0,0 l/m 2 min 0 min 612 W/m 25,1 km/h (4 Bft) 97,87 %
07.07.2017 16:36 31,4 C 32,8 C 38,3 C 49 % 0 lf 1013,5 hPa 0,0 l/m 2 min 0 min 622 W/m 18,8 km/h (3 Bft) 95,74 %
07.07.2017 16:38 31,4 C 32,2 C 37,8 C 49 % 0 lf 1013,3 hPa 0,0 l/m 2 min 0 min 604 W/m 20,9 km/h (4 Bft) 93,62 %
07.07.2017 16:40 31,4 C 32,8 C 37,2 C 49 % 0 lf 1013,4 hPa 0,0 l/m 2 min 0 min 537 W/m 23,0 km/h (4 Bft) 95,65 %
07.07.2017 16:42 31,3 C 32,8 C 36,7 C 50 % 0 lf 1013,4 hPa 0,0 l/m 2 min 0 min 557 W/m 18,8 km/h (3 Bft) 93,62 %
07.07.2017 16:44 31,3 C 32,8 C 36,7 C 50 % 0 lf 1013,4 hPa 0,0 l/m 2 min 0 min 544 W/m 23,0 km/h (4 Bft) 95,74 %
07.07.2017 16:46 31,3 C 32,2 C 36,1 C 50 % 0 lf 1013,4 hPa 0,0 l/m 2 min 0 min 517 W/m 14,6 km/h (3 Bft) 95,74 %
07.07.2017 16:48 31,2 C 32,2 C 34,4 C 50 % 0 lf 1013,4 hPa 0,0 l/m 2 min 0 min 358 W/m 20,9 km/h (4 Bft) 93,62 %
07.07.2017 16:50 31,1 C 31,7 C 33,3 C 50 % 0 lf 1013,5 hPa 0,0 l/m 0 min 0 min 301 W/m 29,3 km/h (5 Bft) 95,74 %
07.07.2017 16:52 31,0 C 31,1 C 32,8 C 50 % 0 lf 1013,5 hPa 0,0 l/m 0 min 0 min 282 W/m 25,1 km/h (4 Bft) 95,65 %
07.07.2017 16:54 30,8 C 31,1 C 32,2 C 50 % 0 lf 1013,5 hPa 0,0 l/m 2 min 0 min 335 W/m 25,1 km/h (4 Bft) 93,62 %
07.07.2017 16:56 30,7 C 31,7 C 33,3 C 51 % 0 lf 1013,5 hPa 0,0 l/m 2 min 0 min 424 W/m 16,7 km/h (3 Bft) 95,74 %
07.07.2017 16:58 30,7 C 31,7 C 34,4 C 50 % 0 lf 1013,5 hPa 0,0 l/m 2 min 0 min 651 W/m 33,5 km/h (5 Bft) 95,74 %
07.07.2017 17:00 30,7 C 31,7 C 35,0 C 50 % 0 lf 1013,5 hPa 0,0 l/m 2 min 0 min 560 W/m 25,1 km/h (4 Bft) 93,62 %
07.07.2017 17:02 30,6 C 32,2 C 35,0 C 50 % 0 lf 1013,5 hPa 0,0 l/m 2 min 0 min 544 W/m 23,0 km/h (4 Bft) 95,74 %
07.07.2017 17:04 30,6 C 31,7 C 34,4 C 50 % 0 lf 1013,6 hPa 0,0 l/m 2 min 0 min 656 W/m 29,3 km/h (5 Bft) 93,48 %
07.07.2017 17:06 30,6 C 31,7 C 33,9 C 50 % 0 lf 1013,5 hPa 0,0 l/m 2 min 0 min 574 W/m 18,8 km/h (3 Bft) 94,74 %
07.07.2017 17:08 30,6 C 31,7 C 33,9 C 50 % 0 lf 1013,5 hPa 0,0 l/m 2 min 0 min 404 W/m 27,2 km/h (4 Bft) 95,74 %
07.07.2017 17:10 30,6 C 31,7 C 33,9 C 50 % 0 lf 1013,5 hPa 0,0 l/m 2 min 0 min 492 W/m 18,8 km/h (3 Bft) 95,74 %
07.07.2017 17:12 30,6 C 31,1 C 32,8 C 50 % 0 lf 1013,5 hPa 0,0 l/m 2 min 0 min 571 W/m 35,6 km/h (5 Bft) 91,49 %
07.07.2017 17:14 30,6 C 31,1 C 32,8 C 51 % 0 lf 1013,5 hPa 0,0 l/m 2 min 0 min 517 W/m 29,3 km/h (5 Bft) 93,62 %
07.07.2017 17:16 30,6 C 31,7 C 32,2 C 51 % 0 lf 1013,6 hPa 0,0 l/m 2 min 0 min 474 W/m 18,8 km/h (3 Bft) 93,62 %
07.07.2017 17:18 30,5 C 31,1 C 32,2 C 51 % 0 lf 1013,5 hPa 0,0 l/m 2 min 0 min 413 W/m 23,0 km/h (4 Bft) 97,83 %
07.07.2017 17:20 30,5 C 31,1 C 32,2 C 50 % 0 lf 1013,5 hPa 0,0 l/m 2 min 0 min 461 W/m 27,2 km/h (4 Bft) 97,87 %
07.07.2017 17:22 30,4 C 31,1 C 32,2 C 50 % 0 lf 1013,4 hPa 0,0 l/m 2 min 0 min 455 W/m 29,3 km/h (5 Bft) 95,74 %
07.07.2017 17:24 30,4 C 31,1 C 31,7 C 50 % 0 lf 1013,6 hPa 0,0 l/m 2 min 0 min 493 W/m 20,9 km/h (4 Bft) 95,74 %
07.07.2017 17:26 30,4 C 30,6 C 31,1 C 51 % 0 lf 1013,6 hPa 0,0 l/m 2 min 0 min 441 W/m 18,8 km/h (3 Bft) 97,87 %
07.07.2017 17:28 30,3 C 30,6 C 31,1 C 51 % 0 lf 1013,6 hPa 0,0 l/m 2 min 0 min 391 W/m 23,0 km/h (4 Bft) 100,00 %
07.07.2017 17:30 30,3 C 30,6 C 31,1 C 51 % 0 lf 1013,6 hPa 0,0 l/m 2 min 0 min 375 W/m 27,2 km/h (4 Bft) 100,00 %
07.07.2017 17:32 30,3 C 31,1 C 31,7 C 51 % 0 lf 1013,6 hPa 0,0 l/m 2 min 0 min 434 W/m 23,0 km/h (4 Bft) 97,87 %
07.07.2017 17:34 30,2 C 30,6 C 31,7 C 51 % 0 lf 1013,6 hPa 0,0 l/m 2 min 0 min 461 W/m 25,1 km/h (4 Bft) 100,00 %
07.07.2017 17:36 30,2 C 31,1 C 31,7 C 52 % 0 lf 1013,6 hPa 0,0 l/m 2 min 0 min 483 W/m 18,8 km/h (3 Bft) 95,74 %
07.07.2017 17:38 30,2 C 31,1 C 31,1 C 52 % 0 lf 1013,5 hPa 0,0 l/m 2 min 0 min 405 W/m 25,1 km/h (4 Bft) 97,87 %
07.07.2017 17:40 30,1 C 31,1 C 30,6 C 51 % 0 lf 1013,5 hPa 0,0 l/m 2 min 0 min 470 W/m 25,1 km/h (4 Bft) 100,00 %
07.07.2017 17:42 30,1 C 31,1 C 30,6 C 51 % 0 lf 1013,6 hPa 0,0 l/m 2 min 0 min 504 W/m 23,0 km/h (4 Bft) 97,87 %
07.07.2017 17:44 30,1 C 31,1 C 30,6 C 51 % 0 lf 1013,7 hPa 0,0 l/m 2 min 0 min 455 W/m 27,2 km/h (4 Bft) 97,92 %
07.07.2017 17:46 30,0 C 30,6 C 30,6 C 51 % 0 lf 1013,7 hPa 0,0 l/m 2 min 0 min 323 W/m 25,1 km/h (4 Bft) 97,87 %
07.07.2017 17:48 29,9 C 30,0 C 30,0 C 50 % 0 lf 1013,7 hPa 0,0 l/m 2 min 0 min 323 W/m 33,5 km/h (5 Bft) 97,87 %
07.07.2017 17:50 29,8 C 29,4 C 29,4 C 50 % 0 lf 1013,7 hPa 0,0 l/m 2 min 0 min 331 W/m 37,7 km/h (5 Bft) 100,00 %
07.07.2017 17:52 29,7 C 29,4 C 29,4 C 50 % 0 lf 1013,7 hPa 0,0 l/m 2 min 0 min 283 W/m 23,0 km/h (4 Bft) 95,65 %
07.07.2017 17:54 29,6 C 29,4 C 29,4 C 50 % 0 lf 1013,7 hPa 0,0 l/m 0 min 0 min 264 W/m 27,2 km/h (4 Bft) 100,00 %
07.07.2017 17:56 29,4 C 29,4 C 28,9 C 50 % 0 lf 1013,8 hPa 0,0 l/m 2 min 0 min 271 W/m 31,4 km/h (5 Bft) 97,87 %
07.07.2017 17:58 29,3 C 29,4 C 28,9 C 51 % 0 lf 1013,8 hPa 0,0 l/m 2 min 0 min 303 W/m 16,7 km/h (3 Bft) 97,87 %
07.07.2017 18:00 29,3 C 30,0 C 29,4 C 51 % 0 lf 1013,9 hPa 0,0 l/m 2 min 0 min 358 W/m 20,9 km/h (4 Bft) 95,74 %
07.07.2017 18:02 29,2 C 30,0 C 29,4 C 51 % 0 lf 1013,9 hPa 0,0 l/m 2 min 0 min 400 W/m 23,0 km/h (4 Bft) 98,00 %
07.07.2017 18:04 29,2 C 29,4 C 28,9 C 49 % 0 lf 1014,0 hPa 0,0 l/m 2 min 0 min 398 W/m 27,2 km/h (4 Bft) 97,96 %
07.07.2017 18:06 29,1 C 29,4 C 28,9 C 49 % 0 lf 1013,9 hPa 0,0 l/m 2 min 0 min 388 W/m 25,1 km/h (4 Bft) 92,11 %
07.07.2017 18:08 29,1 C 30,0 C 28,9 C 50 % 0 lf 1013,9 hPa 0,0 l/m 2 min 0 min 363 W/m 18,8 km/h (3 Bft) 97,92 %
07.07.2017 18:10 29,0 C 29,4 C 28,9 C 50 % 0 lf 1013,9 hPa 0,0 l/m 2 min 0 min 381 W/m 29,3 km/h (5 Bft) 97,87 %
07.07.2017 18:12 29,0 C 29,4 C 28,9 C 50 % 0 lf 1013,9 hPa 0,0 l/m 2 min 0 min 388 W/m 25,1 km/h (4 Bft) 97,87 %
07.07.2017 18:14 28,9 C 30,0 C 28,9 C 51 % 0 lf 1013,9 hPa 0,0 l/m 2 min 0 min 367 W/m 25,1 km/h (4 Bft) 97,92 %
07.07.2017 18:16 28,9 C 29,4 C 28,9 C 50 % 0 lf 1013,9 hPa 0,0 l/m 2 min 0 min 367 W/m 23,0 km/h (4 Bft) 95,74 %
07.07.2017 18:18 28,9 C 29,4 C 28,9 C 50 % 0 lf 1013,9 hPa 0,0 l/m 2 min 0 min 334 W/m 29,3 km/h (5 Bft) 95,74 %
07.07.2017 18:20 28,9 C 29,4 C 28,9 C 50 % 0 lf 1013,8 hPa 0,0 l/m 2 min 0 min 347 W/m 25,1 km/h (4 Bft) 97,87 %
07.07.2017 18:22 28,8 C 28,9 C 28,3 C 50 % 0 lf 1013,9 hPa 0,0 l/m 2 min 0 min 332 W/m 25,1 km/h (4 Bft) 93,62 %
07.07.2017 18:24 28,8 C 28,9 C 28,3 C 51 % 0 lf 1013,9 hPa 0,0 l/m 2 min 0 min 293 W/m 20,9 km/h (4 Bft) 95,74 %
07.07.2017 18:26 28,8 C 28,9 C 28,3 C 51 % 0 lf 1013,9 hPa 0,0 l/m 2 min 0 min 270 W/m 20,9 km/h (4 Bft) 97,73 %
07.07.2017 18:28 28,7 C 28,9 C 28,3 C 52 % 0 lf 1014,0 hPa 0,0 l/m 2 min 0 min 278 W/m 16,7 km/h (3 Bft) 96,43 %
07.07.2017 18:30 28,7 C 28,9 C 28,3 C 52 % 0 lf 1014,0 hPa 0,0 l/m 2 min 0 min 277 W/m 14,6 km/h (3 Bft) 97,92 %
07.07.2017 18:32 28,6 C 28,9 C 28,3 C 50 % 0 lf 1013,9 hPa 0,0 l/m 2 min 0 min 340 W/m 23,0 km/h (4 Bft) 95,74 %
07.07.2017 18:34 28,6 C 28,9 C 28,3 C 50 % 0 lf 1013,9 hPa 0,0 l/m 2 min 0 min 331 W/m 20,9 km/h (4 Bft) 95,74 %
07.07.2017 18:36 28,5 C 28,9 C 28,3 C 50 % 0 lf 1013,8 hPa 0,0 l/m 2 min 0 min 291 W/m 14,6 km/h (3 Bft) 97,83 %
07.07.2017 18:38 28,5 C 28,9 C 28,3 C 51 % 0 lf 1013,9 hPa 0,0 l/m 2 min 0 min 278 W/m 27,2 km/h (4 Bft) 92,31 %
07.07.2017 18:40 28,4 C 28,9 C 28,3 C 52 % 0 lf 1013,8 hPa 0,0 l/m 2 min 0 min 273 W/m 18,8 km/h (3 Bft) 97,83 %
07.07.2017 18:42 28,4 C 28,9 C 28,3 C 53 % 0 lf 1013,9 hPa 0,0 l/m 2 min 0 min 283 W/m 16,7 km/h (3 Bft) 95,83 %
07.07.2017 18:44 28,4 C 28,9 C 28,3 C 54 % 0 lf 1013,8 hPa 0,0 l/m 2 min 0 min 272 W/m 18,8 km/h (3 Bft) 97,87 %
07.07.2017 18:46 28,4 C 28,3 C 27,8 C 53 % 0 lf 1013,9 hPa 0,0 l/m 2 min 0 min 260 W/m 25,1 km/h (4 Bft) 94,55 %
07.07.2017 18:48 28,3 C 28,3 C 27,8 C 52 % 0 lf 1013,9 hPa 0,0 l/m 2 min 0 min 282 W/m 23,0 km/h (4 Bft) 95,65 %
07.07.2017 18:50 28,3 C 28,3 C 27,8 C 52 % 0 lf 1014,0 hPa 0,0 l/m 2 min 0 min 274 W/m 20,9 km/h (4 Bft) 97,44 %
07.07.2017 18:52 28,2 C 27,8 C 27,8 C 52 % 0 lf 1013,9 hPa 0,0 l/m 2 min 0 min 216 W/m 35,6 km/h (5 Bft) 100,00 %
07.07.2017 18:54 28,1 C 27,8 C 27,2 C 52 % 0 lf 1014,0 hPa 0,0 l/m 2 min 0 min 216 W/m 27,2 km/h (4 Bft) 97,87 %
07.07.2017 18:56 28,0 C 27,8 C 27,2 C 52 % 0 lf 1013,9 hPa 0,0 l/m 2 min 0 min 218 W/m 20,9 km/h (4 Bft) 95,74 %
07.07.2017 18:58 27,9 C 27,8 C 27,2 C 53 % 0 lf 1014,0 hPa 0,0 l/m 2 min 0 min 247 W/m 12,6 km/h (3 Bft) 93,75 %
07.07.2017 19:00 27,9 C 27,8 C 27,2 C 52 % 0 lf 1014,0 hPa 0,0 l/m 2 min 0 min 254 W/m 20,9 km/h (4 Bft) 97,87 %
07.07.2017 19:02 27,8 C 27,8 C 27,2 C 52 % 0 lf 1013,9 hPa 0,0 l/m 2 min 0 min 231 W/m 25,1 km/h (4 Bft) 97,83 %
07.07.2017 19:04 27,8 C 27,8 C 27,2 C 53 % 0 lf 1013,9 hPa 0,0 l/m 2 min 0 min 241 W/m 16,7 km/h (3 Bft) 92,73 %
07.07.2017 19:06 27,7 C 27,8 C 27,2 C 54 % 0 lf 1013,9 hPa 0,0 l/m 2 min 0 min 222 W/m 18,8 km/h (3 Bft) 97,37 %
07.07.2017 19:08 27,7 C 27,8 C 27,2 C 55 % 0 lf 1013,9 hPa 0,0 l/m 2 min 0 min 213 W/m 16,7 km/h (3 Bft) 93,75 %
07.07.2017 19:10 27,7 C 27,8 C 27,2 C 55 % 0 lf 1014,0 hPa 0,0 l/m 2 min 0 min 262 W/m 29,3 km/h (5 Bft) 93,62 %
07.07.2017 19:12 27,6 C 27,2 C 26,7 C 56 % 0 lf 1013,9 hPa 0,0 l/m 2 min 0 min 291 W/m 27,2 km/h (4 Bft) 94,44 %
07.07.2017 19:14 27,6 C 27,2 C 26,7 C 56 % 0 lf 1014,0 hPa 0,0 l/m 2 min 0 min 260 W/m 31,4 km/h (5 Bft) 97,37 %
07.07.2017 19:16 27,5 C 27,2 C 26,7 C 56 % 0 lf 1014,0 hPa 0,0 l/m 2 min 0 min 217 W/m 23,0 km/h (4 Bft) 93,75 %
07.07.2017 19:18 27,5 C 27,2 C 26,7 C 56 % 0 lf 1014,0 hPa 0,0 l/m 2 min 0 min 227 W/m 20,9 km/h (4 Bft) 97,87 %
07.07.2017 19:20 27,4 C 27,2 C 26,7 C 56 % 0 lf 1014,0 hPa 0,0 l/m 2 min 0 min 220 W/m 14,6 km/h (3 Bft) 97,87 %
07.07.2017 19:22 27,4 C 27,2 C 26,7 C 57 % 0 lf 1014,1 hPa 0,0 l/m 2 min 0 min 209 W/m 16,7 km/h (3 Bft) 95,74 %
07.07.2017 19:24 27,3 C 27,2 C 26,1 C 56 % 0 lf 1014,0 hPa 0,0 l/m 2 min 0 min 229 W/m 27,2 km/h (4 Bft) 97,87 %
07.07.2017 19:26 27,2 C 27,2 C 26,1 C 54 % 0 lf 1014,0 hPa 0,0 l/m 2 min 0 min 241 W/m 29,3 km/h (5 Bft) 97,83 %
07.07.2017 19:28 27,2 C 27,2 C 26,1 C 52 % 0 lf 1014,0 hPa 0,0 l/m 2 min 0 min 255 W/m 18,8 km/h (3 Bft) 95,74 %
07.07.2017 19:30 27,1 C 27,2 C 26,1 C 51 % 0 lf 1014,0 hPa 0,0 l/m 2 min 0 min 237 W/m 20,9 km/h (4 Bft) 93,62 %
07.07.2017 19:32 27,1 C 26,7 C 26,1 C 52 % 0 lf 1014,1 hPa 0,0 l/m 2 min 0 min 210 W/m 20,9 km/h (4 Bft) 100,00 %
07.07.2017 19:34 27,0 C 26,7 C 26,1 C 52 % 0 lf 1014,1 hPa 0,0 l/m 2 min 0 min 188 W/m 14,6 km/h (3 Bft) 97,87 %
07.07.2017 19:36 27,0 C 26,7 C 26,1 C 53 % 0 lf 1014,2 hPa 0,0 l/m 2 min 0 min 179 W/m 12,6 km/h (3 Bft) 100,00 %
07.07.2017 19:38 26,9 C 26,7 C 25,6 C 54 % 0 lf 1014,2 hPa 0,0 l/m 2 min 0 min 176 W/m 16,7 km/h (3 Bft) 97,83 %
07.07.2017 19:40 26,9 C 26,7 C 25,6 C 55 % 0 lf 1014,2 hPa 0,0 l/m 2 min 0 min 157 W/m 25,1 km/h (4 Bft) 97,87 %
07.07.2017 19:42 26,9 C 26,7 C 25,6 C 56 % 0 lf 1014,2 hPa 0,0 l/m 2 min 0 min 143 W/m 12,6 km/h (3 Bft) 97,87 %
07.07.2017 19:44 26,9 C 26,7 C 25,6 C 57 % 0 lf 1014,2 hPa 0,0 l/m 2 min 0 min 148 W/m 16,7 km/h (3 Bft) 95,83 %
07.07.2017 19:46 26,8 C 26,1 C 25,6 C 57 % 0 lf 1014,3 hPa 0,0 l/m 2 min 0 min 170 W/m 18,8 km/h (3 Bft) 95,74 %
07.07.2017 19:48 26,8 C 26,1 C 25,6 C 58 % 0 lf 1014,2 hPa 0,0 l/m 2 min 0 min 175 W/m 18,8 km/h (3 Bft) 96,30 %
07.07.2017 19:50 26,7 C 26,1 C 25,6 C 58 % 0 lf 1014,3 hPa 0,0 l/m 2 min 0 min 146 W/m 14,6 km/h (3 Bft) 97,37 %
07.07.2017 19:52 26,7 C 26,1 C 25,6 C 58 % 0 lf 1014,3 hPa 0,0 l/m 2 min 0 min 143 W/m 16,7 km/h (3 Bft) 93,62 %
07.07.2017 19:54 26,7 C 26,1 C 25,6 C 58 % 0 lf 1014,3 hPa 0,0 l/m 2 min 0 min 158 W/m 18,8 km/h (3 Bft) 93,62 %
07.07.2017 19:56 26,6 C 26,1 C 25,0 C 58 % 0 lf 1014,3 hPa 0,0 l/m 2 min 0 min 177 W/m 12,6 km/h (3 Bft) 97,14 %
07.07.2017 19:58 26,6 C 26,1 C 25,0 C 58 % 0 lf 1014,3 hPa 0,0 l/m 2 min 0 min 164 W/m 8,4 km/h (2 Bft) 95,00 %
07.07.2017 20:00 26,6 C 26,1 C 25,0 C 59 % 0 lf 1014,3 hPa 0,0 l/m 2 min 0 min 151 W/m 18,8 km/h (3 Bft) 97,87 %
07.07.2017 20:02 26,5 C 26,1 C 25,0 C 59 % 0 lf 1014,3 hPa 0,0 l/m 2 min 0 min 134 W/m 16,7 km/h (3 Bft) 96,30 %
07.07.2017 20:04 26,4 C 26,1 C 25,0 C 59 % 0 lf 1014,3 hPa 0,0 l/m 2 min 0 min 118 W/m 16,7 km/h (3 Bft) 100,00 %
07.07.2017 20:06 26,4 C 26,1 C 25,0 C 59 % 0 lf 1014,4 hPa 0,0 l/m 2 min 0 min 120 W/m 10,5 km/h (2 Bft) 95,83 %
07.07.2017 20:08 26,3 C 25,6 C 24,4 C 59 % 0 lf 1014,4 hPa 0,0 l/m 2 min 0 min 116 W/m 16,7 km/h (3 Bft) 95,74 %
07.07.2017 20:10 26,3 C 25,6 C 24,4 C 59 % 0 lf 1014,4 hPa 0,0 l/m 0 min 0 min 103 W/m 16,7 km/h (3 Bft) 97,87 %
07.07.2017 20:12 26,2 C 25,6 C 24,4 C 60 % 0 lf 1014,4 hPa 0,0 l/m 0 min 0 min 93 W/m 14,6 km/h (3 Bft) 97,87 %
07.07.2017 20:14 26,2 C 25,6 C 24,4 C 60 % 0 lf 1014,4 hPa 0,0 l/m 0 min 0 min 87 W/m 14,6 km/h (3 Bft) 96,30 %
07.07.2017 20:16 26,1 C 25,6 C 24,4 C 60 % 0 lf 1014,4 hPa 0,0 l/m 0 min 0 min 81 W/m 25,1 km/h (4 Bft) 95,74 %
07.07.2017 20:18 26,1 C 25,0 C 23,9 C 60 % 0 lf 1014,4 hPa 0,0 l/m 0 min 0 min 73 W/m 12,6 km/h (3 Bft) 97,37 %
07.07.2017 20:20 26,0 C 25,0 C 23,9 C 60 % 0 lf 1014,4 hPa 0,0 l/m 0 min 0 min 73 W/m 16,7 km/h (3 Bft) 97,92 %
07.07.2017 20:22 25,9 C 25,0 C 23,9 C 61 % 0 lf 1014,4 hPa 0,0 l/m 0 min 0 min 78 W/m 10,5 km/h (2 Bft) 95,74 %
07.07.2017 20:24 25,9 C 25,0 C 23,9 C 61 % 0 lf 1014,5 hPa 0,0 l/m 0 min 0 min 73 W/m 16,7 km/h (3 Bft) 97,83 %
07.07.2017 20:26 25,8 C 25,0 C 23,9 C 61 % 0 lf 1014,5 hPa 0,0 l/m 0 min 0 min 75 W/m 14,6 km/h (3 Bft) 95,74 %
07.07.2017 20:28 25,7 C 25,0 C 23,3 C 61 % 0 lf 1014,5 hPa 0,0 l/m 0 min 0 min 72 W/m 16,7 km/h (3 Bft) 95,74 %
07.07.2017 20:30 25,7 C 25,0 C 20,6 C 62 % 0 lf 1014,4 hPa 0,0 l/m 0 min 0 min 67 W/m 16,7 km/h (3 Bft) 96,36 %
07.07.2017 20:32 25,6 C 24,4 C 20,0 C 61 % 0 lf 1014,5 hPa 0,0 l/m 0 min 0 min 65 W/m 14,6 km/h (3 Bft) 95,74 %
07.07.2017 20:34 25,6 C 24,4 C 21,1 C 61 % 0 lf 1014,5 hPa 0,0 l/m 0 min 0 min 65 W/m 14,6 km/h (3 Bft) 93,48 %
07.07.2017 20:36 25,5 C 24,4 C 21,1 C 61 % 0 lf 1014,4 hPa 0,0 l/m 0 min 0 min 63 W/m 20,9 km/h (4 Bft) 93,62 %
07.07.2017 20:38 25,4 C 24,4 C 21,7 C 61 % 0 lf 1014,4 hPa 0,0 l/m 0 min 0 min 62 W/m 14,6 km/h (3 Bft) 91,49 %
07.07.2017 20:40 25,4 C 24,4 C 22,2 C 61 % 0 lf 1014,5 hPa 0,0 l/m 0 min 0 min 61 W/m 12,6 km/h (3 Bft) 92,11 %
07.07.2017 20:42 25,3 C 24,4 C 22,2 C 61 % 0 lf 1014,5 hPa 0,0 l/m 0 min 0 min 60 W/m 10,5 km/h (2 Bft) 93,62 %
07.07.2017 20:44 25,3 C 24,4 C 22,2 C 61 % 0 lf 1014,5 hPa 0,0 l/m 0 min 0 min 60 W/m 10,5 km/h (2 Bft) 95,83 %
07.07.2017 20:46 25,2 C 24,4 C 22,8 C 61 % 0 lf 1014,4 hPa 0,0 l/m 0 min 0 min 56 W/m 12,6 km/h (3 Bft) 95,74 %
07.07.2017 20:48 25,1 C 23,9 C 22,8 C 61 % 0 lf 1014,4 hPa 0,0 l/m 0 min 0 min 54 W/m 16,7 km/h (3 Bft) 93,48 %
07.07.2017 20:50 25,1 C 23,9 C 22,8 C 61 % 0 lf 1014,3 hPa 0,0 l/m 0 min 0 min 51 W/m 18,8 km/h (3 Bft) 95,74 %
07.07.2017 20:52 25,1 C 23,9 C 22,8 C 61 % 0 lf 1014,4 hPa 0,0 l/m 0 min 0 min 48 W/m 12,6 km/h (3 Bft) 93,62 %
07.07.2017 20:54 25,0 C 23,9 C 22,2 C 61 % 0 lf 1014,5 hPa 0,0 l/m 0 min 0 min 46 W/m 8,4 km/h (2 Bft) 92,73 %
07.07.2017 20:56 24,9 C 23,9 C 22,2 C 61 % 0 lf 1014,5 hPa 0,0 l/m 0 min 0 min 43 W/m 14,6 km/h (3 Bft) 94,74 %
07.07.2017 20:58 24,9 C 23,9 C 21,7 C 61 % 0 lf 1014,4 hPa 0,0 l/m 0 min 0 min 41 W/m 10,5 km/h (2 Bft) 95,83 %
07.07.2017 21:00 24,8 C 23,9 C 21,7 C 61 % 0 lf 1014,5 hPa 0,0 l/m 0 min 0 min 38 W/m 10,5 km/h (2 Bft) 95,65 %
07.07.2017 21:02 24,8 C 23,9 C 21,7 C 61 % 0 lf 1014,5 hPa 0,0 l/m 0 min 0 min 37 W/m 10,5 km/h (2 Bft) 94,55 %
07.07.2017 21:04 24,7 C 23,3 C 21,7 C 61 % 0 lf 1014,5 hPa 0,0 l/m 0 min 0 min 34 W/m 8,4 km/h (2 Bft) 93,62 %
07.07.2017 21:06 24,7 C 23,3 C 21,7 C 61 % 0 lf 1014,5 hPa 0,0 l/m 0 min 0 min 32 W/m 12,6 km/h (3 Bft) 92,11 %
07.07.2017 21:08 24,6 C 23,3 C 21,1 C 62 % 0 lf 1014,5 hPa 0,0 l/m 0 min 0 min 32 W/m 8,4 km/h (2 Bft) 95,74 %
07.07.2017 21:10 24,6 C 23,3 C 21,1 C 61 % 0 lf 1014,5 hPa 0,0 l/m 0 min 0 min 32 W/m 10,5 km/h (2 Bft) 95,74 %
07.07.2017 21:12 24,5 C 23,3 C 21,1 C 61 % 0 lf 1014,6 hPa 0,0 l/m 0 min 0 min 28 W/m 8,4 km/h (2 Bft) 91,30 %
07.07.2017 21:14 24,4 C 23,3 C 21,1 C 61 % 0 lf 1014,6 hPa 0,0 l/m 0 min 0 min 25 W/m 8,4 km/h (2 Bft) 95,83 %
07.07.2017 21:16 24,4 C 23,3 C 21,1 C 61 % 0 lf 1014,6 hPa 0,0 l/m 0 min 0 min 23 W/m 10,5 km/h (2 Bft) 95,74 %
07.07.2017 21:18 24,4 C 22,8 C 21,1 C 61 % 0 lf 1014,6 hPa 0,0 l/m 0 min 0 min 20 W/m 8,4 km/h (2 Bft) 98,18 %
07.07.2017 21:20 24,3 C 22,8 C 21,1 C 61 % 0 lf 1014,5 hPa 0,0 l/m 0 min 0 min 19 W/m 6,3 km/h (2 Bft) 97,37 %
07.07.2017 21:22 24,3 C 22,8 C 20,6 C 61 % 0 lf 1014,6 hPa 0,0 l/m 0 min 0 min 18 W/m 8,4 km/h (2 Bft) 100,00 %
07.07.2017 21:24 24,2 C 22,8 C 20,6 C 62 % 0 lf 1014,6 hPa 0,0 l/m 0 min 0 min 16 W/m 6,3 km/h (2 Bft) 100,00 %
07.07.2017 21:26 24,2 C 22,8 C 20,6 C 62 % 0 lf 1014,7 hPa 0,0 l/m 0 min 0 min 16 W/m 8,4 km/h (2 Bft) 100,00 %
07.07.2017 21:28 24,2 C 22,8 C 20,6 C 62 % 0 lf 1014,7 hPa 0,0 l/m 0 min 0 min 16 W/m 6,3 km/h (2 Bft) 93,62 %
07.07.2017 21:30 24,1 C 22,2 C 20,6 C 62 % 0 lf 1014,7 hPa 0,0 l/m 0 min 0 min 16 W/m 6,3 km/h (2 Bft) 98,18 %
07.07.2017 21:32 24,1 C 22,2 C 20,0 C 62 % 0 lf 1014,7 hPa 0,0 l/m 0 min 0 min 15 W/m 4,2 km/h (1 Bft) 100,00 %
07.07.2017 21:34 24,0 C 22,2 C 20,6 C 62 % 0 lf 1014,8 hPa 0,0 l/m 0 min 0 min 13 W/m 10,5 km/h (2 Bft) 100,00 %
07.07.2017 21:36 23,9 C 22,2 C 20,6 C 63 % 0 lf 1014,7 hPa 0,0 l/m 0 min 0 min 11 W/m 6,3 km/h (2 Bft) 100,00 %
07.07.2017 21:38 23,9 C 22,2 C 20,6 C 64 % 0 lf 1014,7 hPa 0,0 l/m 0 min 0 min 9 W/m 8,4 km/h (2 Bft) 100,00 %
07.07.2017 21:40 23,9 C 22,2 C 20,6 C 64 % 0 lf 1014,8 hPa 0,0 l/m 0 min 0 min 8 W/m 8,4 km/h (2 Bft) 98,18 %
07.07.2017 21:42 23,8 C 22,2 C 20,6 C 65 % 0 lf 1014,7 hPa 0,0 l/m 0 min 0 min 7 W/m 6,3 km/h (2 Bft) 97,87 %
07.07.2017 21:44 23,8 C 22,2 C 20,6 C 66 % 0 lf 1014,8 hPa 0,0 l/m 0 min 0 min 5 W/m 10,5 km/h (2 Bft) 100,00 %
07.07.2017 21:46 23,7 C 22,2 C 20,6 C 66 % 0 lf 1014,8 hPa 0,0 l/m 0 min 0 min 5 W/m 12,6 km/h (3 Bft) 100,00 %
07.07.2017 21:48 23,7 C 21,7 C 20,0 C 67 % 0 lf 1014,8 hPa 0,0 l/m 0 min 0 min 5 W/m 8,4 km/h (2 Bft) 97,87 %
07.07.2017 21:50 23,6 C 21,7 C 20,6 C 67 % 0 lf 1014,8 hPa 0,0 l/m 0 min 0 min 0 W/m 14,6 km/h (3 Bft) 100,00 %
07.07.2017 21:52 23,6 C 21,7 C 20,6 C 68 % 0 lf 1014,8 hPa 0,0 l/m 0 min 0 min 0 W/m 8,4 km/h (2 Bft) 97,37 %
07.07.2017 21:54 23,5 C 21,7 C 20,6 C 68 % 0 lf 1014,9 hPa 0,0 l/m 0 min 0 min 0 W/m 8,4 km/h (2 Bft) 100,00 %
07.07.2017 21:56 23,4 C 21,7 C 20,0 C 69 % 0 lf 1014,9 hPa 0,0 l/m 0 min 0 min 0 W/m 8,4 km/h (2 Bft) 100,00 %
07.07.2017 21:58 23,4 C 21,7 C 20,0 C 69 % 0 lf 1014,8 hPa 0,0 l/m 0 min 0 min 0 W/m 12,6 km/h (3 Bft) 100,00 %
07.07.2017 22:00 23,4 C 21,7 C 20,0 C 70 % 0 lf 1014,9 hPa 0,0 l/m 0 min 0 min 0 W/m 8,4 km/h (2 Bft) 97,87 %
07.07.2017 22:02 23,3 C 21,7 C 20,0 C 70 % 0 lf 1014,9 hPa 0,0 l/m 0 min 0 min 0 W/m 10,5 km/h (2 Bft) 95,74 %
07.07.2017 22:04 23,3 C 21,7 C 20,6 C 71 % 0 lf 1015,0 hPa 0,0 l/m 0 min 0 min 0 W/m 10,5 km/h (2 Bft) 97,37 %
07.07.2017 22:06 23,2 C 21,1 C 20,0 C 71 % 0 lf 1014,9 hPa 0,0 l/m 0 min 0 min 0 W/m 8,4 km/h (2 Bft) 100,00 %
07.07.2017 22:08 23,2 C 21,1 C 20,0 C 71 % 0 lf 1015,0 hPa 0,0 l/m 0 min 0 min 0 W/m 6,3 km/h (2 Bft) 97,87 %
07.07.2017 22:10 23,1 C 21,1 C 20,0 C 72 % 0 lf 1015,0 hPa 0,0 l/m 0 min 0 min 0 W/m 10,5 km/h (2 Bft) 100,00 %
07.07.2017 22:12 23,0 C 21,1 C 20,0 C 72 % 0 lf 1015,0 hPa 0,0 l/m 0 min 0 min 0 W/m 10,5 km/h (2 Bft) 97,14 %
07.07.2017 22:14 22,9 C 21,1 C 20,0 C 72 % 0 lf 1015,0 hPa 0,0 l/m 0 min 0 min 0 W/m 8,4 km/h (2 Bft) 100,00 %
07.07.2017 22:16 22,9 C 21,1 C 20,0 C 73 % 0 lf 1015,0 hPa 0,0 l/m 0 min 0 min 0 W/m 8,4 km/h (2 Bft) 100,00 %
07.07.2017 22:18 22,8 C 21,1 C 20,0 C 73 % 0 lf 1015,0 hPa 0,0 l/m 0 min 0 min 0 W/m 12,6 km/h (3 Bft) 97,14 %
07.07.2017 22:20 22,8 C 21,1 C 20,0 C 73 % 0 lf 1015,0 hPa 0,0 l/m 0 min 0 min 0 W/m 8,4 km/h (2 Bft) 98,28 %
07.07.2017 22:22 22,7 C 21,1 C 19,4 C 73 % 0 lf 1015,0 hPa 0,0 l/m 0 min 0 min 0 W/m 12,6 km/h (3 Bft) 97,22 %
07.07.2017 22:24 22,7 C 21,1 C 19,4 C 74 % 0 lf 1015,0 hPa 0,0 l/m 0 min 0 min 0 W/m 8,4 km/h (2 Bft) 97,83 %
07.07.2017 22:26 22,6 C 21,1 C 19,4 C 74 % 0 lf 1015,0 hPa 0,0 l/m 0 min 0 min 0 W/m 12,6 km/h (3 Bft) 97,87 %
07.07.2017 22:28 22,6 C 20,6 C 19,4 C 74 % 0 lf 1015,0 hPa 0,0 l/m 0 min 0 min 0 W/m 8,4 km/h (2 Bft) 97,87 %
07.07.2017 22:30 22,5 C 20,6 C 19,4 C 74 % 0 lf 1015,1 hPa 0,0 l/m 0 min 0 min 0 W/m 8,4 km/h (2 Bft) 95,74 %
07.07.2017 22:32 22,4 C 20,6 C 19,4 C 74 % 0 lf 1015,1 hPa 0,0 l/m 0 min 0 min 0 W/m 6,3 km/h (2 Bft) 97,87 %
07.07.2017 22:34 22,4 C 20,6 C 18,9 C 74 % 0 lf 1015,1 hPa 0,0 l/m 0 min 0 min 0 W/m 8,4 km/h (2 Bft) 97,87 %
07.07.2017 22:36 22,3 C 20,6 C 18,9 C 74 % 0 lf 1015,1 hPa 0,0 l/m 0 min 0 min 0 W/m 8,4 km/h (2 Bft) 95,65 %
07.07.2017 22:38 22,3 C 20,6 C 18,9 C 74 % 0 lf 1015,1 hPa 0,0 l/m 0 min 0 min 0 W/m 6,3 km/h (2 Bft) 97,87 %
07.07.2017 22:40 22,3 C 20,6 C 18,9 C 75 % 0 lf 1015,2 hPa 0,0 l/m 0 min 0 min 0 W/m 8,4 km/h (2 Bft) 96,36 %
07.07.2017 22:42 22,2 C 20,6 C 18,9 C 75 % 0 lf 1015,3 hPa 0,0 l/m 0 min 0 min 0 W/m 6,3 km/h (2 Bft) 97,87 %
07.07.2017 22:44 22,2 C 20,0 C 18,3 C 75 % 0 lf 1015,3 hPa 0,0 l/m 0 min 0 min 0 W/m 8,4 km/h (2 Bft) 95,65 %
07.07.2017 22:46 22,1 C 20,0 C 18,3 C 75 % 0 lf 1015,3 hPa 0,0 l/m 0 min 0 min 0 W/m 6,3 km/h (2 Bft) 97,87 %
07.07.2017 22:48 22,1 C 20,0 C 18,3 C 75 % 0 lf 1015,3 hPa 0,0 l/m 0 min 0 min 0 W/m 8,4 km/h (2 Bft) 97,87 %
07.07.2017 22:50 22,0 C 20,0 C 18,3 C 76 % 0 lf 1015,4 hPa 0,0 l/m 0 min 0 min 0 W/m 8,4 km/h (2 Bft) 95,74 %
07.07.2017 22:52 22,0 C 20,0 C 18,3 C 76 % 0 lf 1015,3 hPa 0,0 l/m 0 min 0 min 0 W/m 6,3 km/h (2 Bft) 91,49 %
07.07.2017 22:54 21,9 C 20,0 C 18,3 C 76 % 0 lf 1015,2 hPa 0,0 l/m 0 min 0 min 0 W/m 4,2 km/h (1 Bft) 91,49 %
07.07.2017 22:56 21,9 C 20,0 C 18,3 C 76 % 0 lf 1015,2 hPa 0,0 l/m 0 min 0 min 0 W/m 4,2 km/h (1 Bft) 95,65 %
07.07.2017 22:58 21,8 C 19,4 C 18,3 C 76 % 0 lf 1015,2 hPa 0,0 l/m 0 min 0 min 0 W/m 6,3 km/h (2 Bft) 95,74 %
07.07.2017 23:00 21,8 C 19,4 C 17,8 C 76 % 0 lf 1015,3 hPa 0,0 l/m 0 min 0 min 0 W/m 4,2 km/h (1 Bft) 95,74 %
07.07.2017 23:02 21,8 C 19,4 C 17,8 C 76 % 0 lf 1015,4 hPa 0,0 l/m 0 min 0 min 0 W/m 4,2 km/h (1 Bft) 95,74 %
07.07.2017 23:04 21,7 C 19,4 C 17,8 C 76 % 0 lf 1015,4 hPa 0,0 l/m 0 min 0 min 0 W/m 4,2 km/h (1 Bft) 95,74 %
07.07.2017 23:06 21,7 C 19,4 C 17,8 C 77 % 0 lf 1015,4 hPa 0,0 l/m 0 min 0 min 0 W/m 4,2 km/h (1 Bft) 93,62 %
07.07.2017 23:08 21,6 C 19,4 C 17,8 C 77 % 0 lf 1015,3 hPa 0,0 l/m 0 min 0 min 0 W/m 2,1 km/h (1 Bft) 93,48 %
07.07.2017 23:10 21,6 C 19,4 C 17,8 C 77 % 0 lf 1015,3 hPa 0,0 l/m 0 min 0 min 0 W/m 2,1 km/h (1 Bft) 91,49 %
07.07.2017 23:12 21,5 C 18,9 C 17,8 C 77 % 0 lf 1015,3 hPa 0,0 l/m 0 min 0 min 0 W/m 4,2 km/h (1 Bft) 91,49 %
07.07.2017 23:14 21,4 C 18,9 C 17,8 C 77 % 0 lf 1015,4 hPa 0,0 l/m 0 min 0 min 0 W/m 4,2 km/h (1 Bft) 93,62 %
07.07.2017 23:16 21,4 C 18,9 C 17,2 C 77 % 0 lf 1015,4 hPa 0,0 l/m 0 min 0 min 0 W/m 2,1 km/h (1 Bft) 93,62 %
07.07.2017 23:18 21,3 C 18,9 C 17,2 C 77 % 0 lf 1015,4 hPa 0,0 l/m 0 min 0 min 0 W/m 2,1 km/h (1 Bft) 93,62 %
07.07.2017 23:20 21,3 C 18,9 C 17,2 C 78 % 0 lf 1015,5 hPa 0,0 l/m 0 min 0 min 0 W/m 4,2 km/h (1 Bft) 93,48 %
07.07.2017 23:23 21,2 C 18,9 C 17,2 C 78 % 0 lf 1015,5 hPa 0,0 l/m 0 min 0 min 0 W/m 4,2 km/h (1 Bft) 93,24 %
07.07.2017 23:24 21,2 C 18,9 C 17,2 C 78 % 0 lf 1015,5 hPa 0,0 l/m 0 min 0 min 0 W/m 6,3 km/h (2 Bft) 100,00 %
07.07.2017 23:26 21,2 C 18,9 C 17,2 C 79 % 0 lf 1015,5 hPa 0,0 l/m 0 min 0 min 0 W/m 6,3 km/h (2 Bft) 95,74 %
07.07.2017 23:28 21,1 C 18,9 C 17,2 C 79 % 0 lf 1015,5 hPa 0,0 l/m 0 min 0 min 0 W/m 4,2 km/h (1 Bft) 91,49 %
07.07.2017 23:30 21,1 C 18,9 C 17,2 C 79 % 0 lf 1015,5 hPa 0,0 l/m 0 min 0 min 0 W/m 8,4 km/h (2 Bft) 93,48 %
07.07.2017 23:32 21,0 C 18,9 C 17,2 C 79 % 0 lf 1015,5 hPa 0,0 l/m 0 min 0 min 0 W/m 4,2 km/h (1 Bft) 95,74 %
07.07.2017 23:34 21,0 C 18,9 C 17,2 C 79 % 0 lf 1015,5 hPa 0,0 l/m 0 min 0 min 0 W/m 4,2 km/h (1 Bft) 95,74 %
07.07.2017 23:36 20,9 C 18,9 C 17,2 C 79 % 0 lf 1015,5 hPa 0,0 l/m 0 min 0 min 0 W/m 2,1 km/h (1 Bft) 95,74 %
07.07.2017 23:38 20,8 C 18,9 C 17,2 C 79 % 0 lf 1015,5 hPa 0,0 l/m 0 min 0 min 0 W/m 2,1 km/h (1 Bft) 95,74 %
07.07.2017 23:40 20,8 C 18,9 C 17,2 C 79 % 0 lf 1015,5 hPa 0,0 l/m 0 min 0 min 0 W/m 4,2 km/h (1 Bft) 95,74 %
07.07.2017 23:42 20,8 C 18,3 C 16,7 C 79 % 0 lf 1015,5 hPa 0,0 l/m 0 min 0 min 0 W/m 2,1 km/h (1 Bft) 95,65 %
07.07.2017 23:44 20,7 C 18,3 C 16,7 C 79 % 0 lf 1015,5 hPa 0,0 l/m 0 min 0 min 0 W/m 2,1 km/h (1 Bft) 93,62 %
07.07.2017 23:46 20,7 C 18,3 C 16,7 C 79 % 0 lf 1015,6 hPa 0,0 l/m 0 min 0 min 0 W/m 2,1 km/h (1 Bft) 93,62 %
07.07.2017 23:48 20,6 C 18,3 C 16,7 C 79 % 0 lf 1015,6 hPa 0,0 l/m 0 min 0 min 0 W/m 2,1 km/h (1 Bft) 95,74 %
07.07.2017 23:50 20,6 C 18,3 C 16,7 C 79 % 0 lf 1015,6 hPa 0,0 l/m 0 min 0 min 0 W/m 0,0 km/h (0 Bft) 93,62 %
07.07.2017 23:52 20,5 C 18,3 C 16,7 C 79 % 0 lf 1015,5 hPa 0,0 l/m 0 min 0 min 0 W/m 2,1 km/h (1 Bft) 95,74 %
07.07.2017 23:54 20,5 C 18,3 C 16,7 C 79 % 0 lf 1015,5 hPa 0,0 l/m 0 min 0 min 0 W/m 0,0 km/h (0 Bft) 95,65 %
07.07.2017 23:56 20,4 C 18,3 C 16,7 C 79 % 0 lf 1015,6 hPa 0,0 l/m 0 min 0 min 0 W/m 2,1 km/h (1 Bft) 95,74 %
07.07.2017 23:58 20,4 C 18,3 C 16,7 C 80 % 0 lf 1015,6 hPa 0,0 l/m 0 min 0 min 0 W/m 2,1 km/h (1 Bft) 95,74 %
_ Min-Zeit 06:20 04:52 04:52 16:32 00:00 07:44 - - - - 01:46 12:58
Minimum _ 17,8 C 16,7 C 15,0 C 48 % 0 lf 1012,3 hPa - - - - 0,0 km/h (0 Bft) 85,11 %
_ Max-Zeit 15:32 11:50 15:14 06:52 04:56 00:06 00:00 16:13 00:16 14:18 00:14 00:06
Maximum _ 31,7 C 38,3 C 41,1 C 95 % 2 lf 1016,0 hPa 0,0 l/m 3 min 2 min 987 W/m 37,7 km/h
N-NO (5 Bft)
100,00 %
Durchschnitt _ 24,4 C 25,8 C 24,5 C 73 % 0 lf 1013,5 hPa #0,0 l/m #12:16 h #4 min. 415 W/m 15,0 km/h (3 Bft) 96,45 %
© 2017 W. Hausmann